Wetterdaten: Freitag, 05.05.2017
Datum Zeit Temp. Aussen Temp. o. S. +5cm Feuchte Auss BlattFeu 1 Luftdruck Regen Sonnenschein Regendauer Solar Windben Empfang
05.05.2017 00:00 9,9 C 10,0 C 8,9 C 87 % 0 lf 1019,2 hPa 0,0 l/m 0 min 0 min 0 W/m 20,9 km/h (4 Bft) 93,62 %
05.05.2017 00:02 9,9 C 10,0 C 8,9 C 87 % 0 lf 1019,1 hPa 0,0 l/m 0 min 0 min 0 W/m 16,7 km/h (3 Bft) 11,11 %
05.05.2017 00:04 9,9 C 10,0 C 8,9 C 87 % 0 lf 1019,2 hPa 0,0 l/m 0 min 0 min 0 W/m 16,7 km/h (3 Bft) 66,67 %
05.05.2017 00:06 9,9 C 10,0 C 8,9 C 87 % 0 lf 1019,2 hPa 0,0 l/m 0 min 0 min 0 W/m 16,7 km/h (3 Bft) 92,11 %
05.05.2017 00:10 9,8 C 10,0 C 8,9 C 87 % 0 lf 1019,2 hPa 0,0 l/m 0 min 0 min 0 W/m 18,8 km/h (3 Bft) 94,68 %
05.05.2017 00:12 9,8 C 10,0 C 8,3 C 88 % 0 lf 1019,2 hPa 0,0 l/m 0 min 0 min 0 W/m 23,0 km/h (4 Bft) 98,15 %
05.05.2017 00:14 9,8 C 10,0 C 8,3 C 88 % 0 lf 1019,3 hPa 0,0 l/m 0 min 0 min 0 W/m 18,8 km/h (3 Bft) 96,00 %
05.05.2017 00:16 9,8 C 10,0 C 8,3 C 88 % 0 lf 1019,3 hPa 0,0 l/m 0 min 0 min 0 W/m 16,7 km/h (3 Bft) 94,74 %
05.05.2017 00:18 9,8 C 10,0 C 8,3 C 88 % 0 lf 1019,2 hPa 0,0 l/m 0 min 0 min 0 W/m 23,0 km/h (4 Bft) 95,83 %
05.05.2017 00:20 9,7 C 10,0 C 8,3 C 88 % 0 lf 1019,2 hPa 0,0 l/m 0 min 0 min 0 W/m 16,7 km/h (3 Bft) 95,74 %
05.05.2017 00:22 9,7 C 10,0 C 8,3 C 89 % 0 lf 1019,3 hPa 0,0 l/m 0 min 0 min 0 W/m 20,9 km/h (4 Bft) 95,74 %
05.05.2017 00:24 9,7 C 10,0 C 8,3 C 89 % 0 lf 1019,2 hPa 0,0 l/m 0 min 0 min 0 W/m 18,8 km/h (3 Bft) 92,59 %
05.05.2017 00:26 9,7 C 10,0 C 8,3 C 89 % 0 lf 1019,2 hPa 0,0 l/m 0 min 0 min 0 W/m 20,9 km/h (4 Bft) 94,74 %
05.05.2017 00:28 9,6 C 9,4 C 8,3 C 89 % 2 lf 1019,3 hPa 0,0 l/m 0 min 0 min 0 W/m 16,7 km/h (3 Bft) 95,83 %
05.05.2017 00:30 9,6 C 9,4 C 8,3 C 89 % 3 lf 1019,3 hPa 0,0 l/m 0 min 0 min 0 W/m 18,8 km/h (3 Bft) 93,62 %
05.05.2017 00:32 9,6 C 9,4 C 7,8 C 89 % 2 lf 1019,3 hPa 0,0 l/m 0 min 0 min 0 W/m 23,0 km/h (4 Bft) 94,44 %
05.05.2017 00:34 9,5 C 9,4 C 7,8 C 90 % 3 lf 1019,3 hPa 0,0 l/m 0 min 0 min 0 W/m 14,6 km/h (3 Bft) 92,11 %
05.05.2017 00:36 9,5 C 9,4 C 7,8 C 90 % 3 lf 1019,3 hPa 0,0 l/m 0 min 0 min 0 W/m 14,6 km/h (3 Bft) 93,75 %
05.05.2017 00:38 9,5 C 9,4 C 7,8 C 90 % 2 lf 1019,3 hPa 0,0 l/m 0 min 0 min 0 W/m 14,6 km/h (3 Bft) 91,49 %
05.05.2017 00:40 9,4 C 9,4 C 7,8 C 90 % 2 lf 1019,3 hPa 0,0 l/m 0 min 0 min 0 W/m 16,7 km/h (3 Bft) 92,59 %
05.05.2017 00:42 9,4 C 9,4 C 7,8 C 90 % 2 lf 1019,3 hPa 0,0 l/m 0 min 0 min 0 W/m 14,6 km/h (3 Bft) 94,74 %
05.05.2017 00:44 9,4 C 9,4 C 7,8 C 90 % 3 lf 1019,3 hPa 0,0 l/m 0 min 0 min 0 W/m 16,7 km/h (3 Bft) 95,92 %
05.05.2017 00:46 9,4 C 9,4 C 7,8 C 91 % 6 lf 1019,3 hPa 0,0 l/m 0 min 0 min 0 W/m 18,8 km/h (3 Bft) 95,65 %
05.05.2017 00:48 9,3 C 8,9 C 7,8 C 91 % 14 lf 1019,2 hPa 0,0 l/m 0 min 0 min 0 W/m 18,8 km/h (3 Bft) 92,73 %
05.05.2017 00:50 9,3 C 8,9 C 7,8 C 91 % 15 lf 1019,3 hPa 0,0 l/m 0 min 0 min 0 W/m 16,7 km/h (3 Bft) 97,37 %
05.05.2017 00:52 9,3 C 8,9 C 7,8 C 91 % 15 lf 1019,3 hPa 0,0 l/m 0 min 0 min 0 W/m 14,6 km/h (3 Bft) 93,62 %
05.05.2017 00:54 9,3 C 8,9 C 7,8 C 91 % 15 lf 1019,3 hPa 0,0 l/m 0 min 0 min 0 W/m 12,6 km/h (3 Bft) 95,83 %
05.05.2017 00:56 9,2 C 8,9 C 7,8 C 92 % 15 lf 1019,3 hPa 0,0 l/m 0 min 0 min 0 W/m 14,6 km/h (3 Bft) 91,49 %
05.05.2017 00:58 9,2 C 8,9 C 7,8 C 92 % 15 lf 1019,3 hPa 0,0 l/m 0 min 0 min 0 W/m 14,6 km/h (3 Bft) 94,44 %
05.05.2017 01:00 9,2 C 8,9 C 7,8 C 92 % 15 lf 1019,3 hPa 0,0 l/m 0 min 0 min 0 W/m 14,6 km/h (3 Bft) 97,37 %
05.05.2017 01:02 9,2 C 8,9 C 7,2 C 92 % 15 lf 1019,3 hPa 0,0 l/m 0 min 0 min 0 W/m 16,7 km/h (3 Bft) 97,92 %
05.05.2017 01:04 9,2 C 8,9 C 7,2 C 92 % 15 lf 1019,3 hPa 0,0 l/m 0 min 0 min 0 W/m 16,7 km/h (3 Bft) 97,87 %
05.05.2017 01:06 9,2 C 8,9 C 7,2 C 93 % 15 lf 1019,2 hPa 0,0 l/m 0 min 0 min 0 W/m 12,6 km/h (3 Bft) 96,30 %
05.05.2017 01:08 9,1 C 8,9 C 7,2 C 93 % 15 lf 1019,3 hPa 0,0 l/m 0 min 0 min 0 W/m 8,4 km/h (2 Bft) 97,37 %
05.05.2017 01:10 9,1 C 8,9 C 7,2 C 93 % 15 lf 1019,3 hPa 0,0 l/m 0 min 0 min 0 W/m 14,6 km/h (3 Bft) 95,83 %
05.05.2017 01:12 9,1 C 8,9 C 7,2 C 93 % 15 lf 1019,2 hPa 0,0 l/m 0 min 2 min 0 W/m 14,6 km/h (3 Bft) 100,00 %
05.05.2017 01:14 9,1 C 8,9 C 7,2 C 93 % 15 lf 1019,2 hPa 0,0 l/m 0 min 2 min 0 W/m 10,5 km/h (2 Bft) 100,00 %
05.05.2017 01:16 9,1 C 8,9 C 7,2 C 93 % 15 lf 1019,2 hPa 0,0 l/m 0 min 2 min 0 W/m 12,6 km/h (3 Bft) 100,00 %
05.05.2017 01:18 9,1 C 8,9 C 7,2 C 93 % 15 lf 1019,3 hPa 0,0 l/m 0 min 2 min 0 W/m 18,8 km/h (3 Bft) 100,00 %
05.05.2017 01:20 9,0 C 8,9 C 7,2 C 93 % 15 lf 1019,2 hPa 0,0 l/m 0 min 2 min 0 W/m 14,6 km/h (3 Bft) 100,00 %
05.05.2017 01:22 9,0 C 8,9 C 7,2 C 93 % 15 lf 1019,2 hPa 0,0 l/m 0 min 2 min 0 W/m 18,8 km/h (3 Bft) 100,00 %
05.05.2017 01:24 9,0 C 8,9 C 7,2 C 93 % 15 lf 1019,2 hPa 0,0 l/m 0 min 2 min 0 W/m 14,6 km/h (3 Bft) 98,18 %
05.05.2017 01:26 8,9 C 8,9 C 7,2 C 94 % 15 lf 1019,2 hPa 0,0 l/m 0 min 2 min 0 W/m 20,9 km/h (4 Bft) 94,74 %
05.05.2017 01:28 8,9 C 8,9 C 7,2 C 94 % 15 lf 1019,2 hPa 0,0 l/m 0 min 2 min 0 W/m 20,9 km/h (4 Bft) 97,92 %
05.05.2017 01:30 8,9 C 8,9 C 7,2 C 94 % 15 lf 1019,2 hPa 0,0 l/m 0 min 2 min 0 W/m 20,9 km/h (4 Bft) 97,87 %
05.05.2017 01:32 8,9 C 8,9 C 7,2 C 94 % 15 lf 1019,3 hPa 0,0 l/m 0 min 2 min 0 W/m 16,7 km/h (3 Bft) 98,15 %
05.05.2017 01:34 8,8 C 8,9 C 7,2 C 94 % 15 lf 1019,2 hPa 0,0 l/m 0 min 2 min 0 W/m 14,6 km/h (3 Bft) 97,37 %
05.05.2017 01:36 8,8 C 8,9 C 7,2 C 94 % 15 lf 1019,3 hPa 0,0 l/m 0 min 2 min 0 W/m 18,8 km/h (3 Bft) 97,92 %
05.05.2017 01:38 8,8 C 8,3 C 7,2 C 94 % 15 lf 1019,2 hPa 0,0 l/m 0 min 2 min 0 W/m 18,8 km/h (3 Bft) 97,87 %
05.05.2017 01:40 8,8 C 8,3 C 7,2 C 94 % 15 lf 1019,2 hPa 0,0 l/m 0 min 2 min 0 W/m 20,9 km/h (4 Bft) 98,15 %
05.05.2017 01:42 8,7 C 8,3 C 7,2 C 94 % 15 lf 1019,3 hPa 0,0 l/m 0 min 2 min 0 W/m 10,5 km/h (2 Bft) 97,37 %
05.05.2017 01:44 8,7 C 8,3 C 7,2 C 94 % 15 lf 1019,3 hPa 0,0 l/m 0 min 2 min 0 W/m 14,6 km/h (3 Bft) 97,92 %
05.05.2017 01:46 8,7 C 8,3 C 7,2 C 94 % 15 lf 1019,3 hPa 0,0 l/m 0 min 0 min 0 W/m 12,6 km/h (3 Bft) 95,74 %
05.05.2017 01:48 8,7 C 8,3 C 7,2 C 95 % 15 lf 1019,2 hPa 0,0 l/m 0 min 0 min 0 W/m 10,5 km/h (2 Bft) 96,36 %
05.05.2017 01:50 8,7 C 8,3 C 7,2 C 95 % 15 lf 1019,2 hPa 0,0 l/m 0 min 2 min 0 W/m 10,5 km/h (2 Bft) 97,37 %
05.05.2017 01:52 8,7 C 8,3 C 7,2 C 95 % 15 lf 1019,3 hPa 0,0 l/m 0 min 2 min 0 W/m 14,6 km/h (3 Bft) 95,65 %
05.05.2017 01:54 8,7 C 8,3 C 7,2 C 95 % 15 lf 1019,2 hPa 0,0 l/m 0 min 2 min 0 W/m 10,5 km/h (2 Bft) 97,96 %
05.05.2017 01:56 8,7 C 8,3 C 7,2 C 95 % 15 lf 1019,2 hPa 0,0 l/m 0 min 2 min 0 W/m 12,6 km/h (3 Bft) 97,83 %
05.05.2017 01:58 8,7 C 8,3 C 7,2 C 95 % 15 lf 1019,2 hPa 0,0 l/m 0 min 2 min 5 W/m 16,7 km/h (3 Bft) 96,36 %
05.05.2017 02:00 8,7 C 8,3 C 7,2 C 95 % 15 lf 1019,2 hPa 0,0 l/m 0 min 2 min 5 W/m 16,7 km/h (3 Bft) 97,37 %
05.05.2017 02:02 8,7 C 8,3 C 7,2 C 95 % 15 lf 1019,2 hPa 0,0 l/m 0 min 2 min 3 W/m 12,6 km/h (3 Bft) 95,83 %
05.05.2017 02:04 8,6 C 8,3 C 7,2 C 95 % 15 lf 1019,2 hPa 0,2 l/m 0 min 2 min 0 W/m 18,8 km/h (3 Bft) 97,87 %
05.05.2017 02:06 8,6 C 8,3 C 7,2 C 95 % 15 lf 1019,2 hPa 0,0 l/m 0 min 2 min 0 W/m 20,9 km/h (4 Bft) 96,30 %
05.05.2017 02:08 8,6 C 8,3 C 7,2 C 95 % 15 lf 1019,2 hPa 0,0 l/m 0 min 2 min 0 W/m 23,0 km/h (4 Bft) 100,00 %
05.05.2017 02:10 8,5 C 8,3 C 7,2 C 95 % 15 lf 1019,2 hPa 0,0 l/m 0 min 2 min 0 W/m 18,8 km/h (3 Bft) 95,83 %
05.05.2017 02:12 8,5 C 8,3 C 6,7 C 95 % 15 lf 1019,1 hPa 0,0 l/m 0 min 2 min 0 W/m 20,9 km/h (4 Bft) 91,49 %
05.05.2017 02:14 8,4 C 8,3 C 6,7 C 95 % 15 lf 1019,2 hPa 0,0 l/m 0 min 2 min 0 W/m 29,3 km/h (5 Bft) 96,30 %
05.05.2017 02:16 8,4 C 8,3 C 6,7 C 95 % 15 lf 1019,2 hPa 0,0 l/m 0 min 2 min 0 W/m 20,9 km/h (4 Bft) 89,47 %
05.05.2017 02:18 8,3 C 8,3 C 6,7 C 95 % 15 lf 1019,1 hPa 0,0 l/m 0 min 2 min 0 W/m 20,9 km/h (4 Bft) 95,92 %
05.05.2017 02:20 8,3 C 8,3 C 6,7 C 95 % 15 lf 1019,1 hPa 0,0 l/m 0 min 0 min 0 W/m 18,8 km/h (3 Bft) 95,65 %
05.05.2017 02:22 8,3 C 8,3 C 6,7 C 95 % 15 lf 1019,1 hPa 0,0 l/m 0 min 0 min 0 W/m 20,9 km/h (4 Bft) 95,74 %
05.05.2017 02:24 8,2 C 8,3 C 6,7 C 95 % 15 lf 1019,1 hPa 0,0 l/m 0 min 0 min 0 W/m 16,7 km/h (3 Bft) 96,30 %
05.05.2017 02:26 8,2 C 8,3 C 6,7 C 95 % 15 lf 1019,1 hPa 0,0 l/m 0 min 0 min 0 W/m 25,1 km/h (4 Bft) 94,74 %
05.05.2017 02:28 8,2 C 8,3 C 6,7 C 95 % 15 lf 1019,1 hPa 0,0 l/m 0 min 0 min 0 W/m 16,7 km/h (3 Bft) 93,88 %
05.05.2017 02:30 8,2 C 8,3 C 6,7 C 95 % 15 lf 1019,2 hPa 0,0 l/m 0 min 0 min 4 W/m 14,6 km/h (3 Bft) 95,74 %
05.05.2017 02:32 8,2 C 8,3 C 6,7 C 95 % 15 lf 1019,1 hPa 0,0 l/m 0 min 0 min 0 W/m 12,6 km/h (3 Bft) 96,30 %
05.05.2017 02:34 8,2 C 8,3 C 6,7 C 96 % 15 lf 1019,1 hPa 0,0 l/m 0 min 0 min 0 W/m 23,0 km/h (4 Bft) 97,37 %
05.05.2017 02:36 8,2 C 7,8 C 6,7 C 96 % 15 lf 1019,1 hPa 0,0 l/m 0 min 0 min 0 W/m 20,9 km/h (4 Bft) 95,83 %
05.05.2017 02:38 8,1 C 7,8 C 6,7 C 96 % 15 lf 1019,1 hPa 0,0 l/m 0 min 0 min 0 W/m 20,9 km/h (4 Bft) 93,62 %
05.05.2017 02:40 8,1 C 7,8 C 6,7 C 96 % 15 lf 1019,1 hPa 0,0 l/m 0 min 0 min 0 W/m 18,8 km/h (3 Bft) 100,00 %
05.05.2017 02:42 8,1 C 7,8 C 6,7 C 96 % 15 lf 1019,1 hPa 0,0 l/m 0 min 0 min 0 W/m 20,9 km/h (4 Bft) 94,74 %
05.05.2017 02:44 8,1 C 7,8 C 6,7 C 96 % 15 lf 1019,1 hPa 0,0 l/m 0 min 0 min 0 W/m 18,8 km/h (3 Bft) 100,00 %
05.05.2017 02:46 8,0 C 7,8 C 6,7 C 96 % 15 lf 1019,1 hPa 0,0 l/m 0 min 0 min 0 W/m 12,6 km/h (3 Bft) 97,87 %
05.05.2017 02:48 8,0 C 7,8 C 6,7 C 96 % 15 lf 1019,1 hPa 0,0 l/m 0 min 0 min 0 W/m 14,6 km/h (3 Bft) 96,30 %
05.05.2017 02:50 8,0 C 7,8 C 6,7 C 96 % 15 lf 1019,0 hPa 0,0 l/m 0 min 0 min 0 W/m 16,7 km/h (3 Bft) 94,74 %
05.05.2017 02:52 7,9 C 7,8 C 6,7 C 96 % 15 lf 1019,0 hPa 0,0 l/m 0 min 0 min 0 W/m 16,7 km/h (3 Bft) 97,87 %
05.05.2017 02:54 7,9 C 7,8 C 6,7 C 96 % 15 lf 1019,0 hPa 0,0 l/m 0 min 0 min 0 W/m 12,6 km/h (3 Bft) 95,92 %
05.05.2017 02:56 7,9 C 7,8 C 6,7 C 96 % 15 lf 1019,0 hPa 0,0 l/m 0 min 0 min 0 W/m 18,8 km/h (3 Bft) 95,65 %
05.05.2017 02:58 7,9 C 7,8 C 6,7 C 96 % 15 lf 1019,0 hPa 0,0 l/m 0 min 0 min 0 W/m 12,6 km/h (3 Bft) 98,18 %
05.05.2017 03:00 7,9 C 7,8 C 6,7 C 96 % 15 lf 1019,1 hPa 0,0 l/m 0 min 0 min 0 W/m 10,5 km/h (2 Bft) 97,37 %
05.05.2017 03:02 7,9 C 7,8 C 6,7 C 96 % 15 lf 1019,0 hPa 0,0 l/m 0 min 0 min 0 W/m 14,6 km/h (3 Bft) 97,92 %
05.05.2017 03:04 7,9 C 7,8 C 6,7 C 96 % 15 lf 1019,0 hPa 0,0 l/m 0 min 0 min 0 W/m 16,7 km/h (3 Bft) 95,74 %
05.05.2017 03:06 7,9 C 7,8 C 6,7 C 96 % 15 lf 1019,0 hPa 0,0 l/m 0 min 0 min 0 W/m 16,7 km/h (3 Bft) 94,44 %
05.05.2017 03:08 7,9 C 7,8 C 6,7 C 96 % 15 lf 1019,0 hPa 0,0 l/m 0 min 0 min 0 W/m 16,7 km/h (3 Bft) 100,00 %
05.05.2017 03:10 7,9 C 7,8 C 6,7 C 96 % 15 lf 1019,0 hPa 0,0 l/m 0 min 0 min 0 W/m 16,7 km/h (3 Bft) 95,83 %
05.05.2017 03:12 7,9 C 7,8 C 6,7 C 96 % 15 lf 1018,9 hPa 0,0 l/m 0 min 0 min 0 W/m 16,7 km/h (3 Bft) 95,74 %
05.05.2017 03:14 7,8 C 7,8 C 6,7 C 96 % 15 lf 1019,0 hPa 0,0 l/m 0 min 0 min 0 W/m 12,6 km/h (3 Bft) 94,44 %
05.05.2017 03:16 7,8 C 7,8 C 6,7 C 96 % 15 lf 1019,0 hPa 0,0 l/m 0 min 0 min 0 W/m 14,6 km/h (3 Bft) 94,74 %
05.05.2017 03:18 7,8 C 7,8 C 6,7 C 96 % 15 lf 1019,0 hPa 0,0 l/m 0 min 0 min 0 W/m 14,6 km/h (3 Bft) 95,92 %
05.05.2017 03:20 7,8 C 7,8 C 6,7 C 96 % 15 lf 1019,0 hPa 0,0 l/m 0 min 0 min 0 W/m 16,7 km/h (3 Bft) 97,83 %
05.05.2017 03:22 7,8 C 7,8 C 6,7 C 96 % 15 lf 1019,0 hPa 0,0 l/m 0 min 0 min 0 W/m 12,6 km/h (3 Bft) 91,49 %
05.05.2017 03:24 7,8 C 7,8 C 6,7 C 96 % 15 lf 1018,9 hPa 0,0 l/m 0 min 0 min 0 W/m 14,6 km/h (3 Bft) 92,59 %
05.05.2017 03:26 7,8 C 7,8 C 6,7 C 96 % 15 lf 1018,9 hPa 0,0 l/m 0 min 0 min 0 W/m 16,7 km/h (3 Bft) 92,11 %
05.05.2017 03:28 7,8 C 7,8 C 6,7 C 96 % 15 lf 1018,9 hPa 0,0 l/m 0 min 0 min 0 W/m 14,6 km/h (3 Bft) 93,88 %
05.05.2017 03:30 7,8 C 7,8 C 6,7 C 96 % 15 lf 1018,9 hPa 0,0 l/m 0 min 0 min 0 W/m 16,7 km/h (3 Bft) 93,48 %
05.05.2017 03:32 7,8 C 7,8 C 6,7 C 96 % 15 lf 1018,9 hPa 0,0 l/m 0 min 0 min 0 W/m 14,6 km/h (3 Bft) 96,36 %
05.05.2017 03:34 7,8 C 7,8 C 6,7 C 96 % 15 lf 1018,9 hPa 0,0 l/m 0 min 0 min 0 W/m 16,7 km/h (3 Bft) 97,37 %
05.05.2017 03:36 7,8 C 7,8 C 6,7 C 96 % 15 lf 1018,9 hPa 0,0 l/m 0 min 0 min 0 W/m 14,6 km/h (3 Bft) 95,83 %
05.05.2017 03:38 7,8 C 7,8 C 6,7 C 96 % 15 lf 1018,9 hPa 0,0 l/m 0 min 0 min 0 W/m 12,6 km/h (3 Bft) 97,87 %
05.05.2017 03:40 7,7 C 7,8 C 6,7 C 96 % 15 lf 1019,0 hPa 0,0 l/m 0 min 0 min 0 W/m 10,5 km/h (2 Bft) 98,15 %
05.05.2017 03:42 7,7 C 7,8 C 6,7 C 96 % 15 lf 1018,9 hPa 0,0 l/m 0 min 0 min 0 W/m 12,6 km/h (3 Bft) 92,11 %
05.05.2017 03:44 7,7 C 7,8 C 6,7 C 96 % 15 lf 1018,9 hPa 0,0 l/m 0 min 0 min 0 W/m 14,6 km/h (3 Bft) 95,83 %
05.05.2017 03:46 7,7 C 7,8 C 6,7 C 96 % 15 lf 1018,9 hPa 0,0 l/m 0 min 0 min 0 W/m 12,6 km/h (3 Bft) 97,87 %
05.05.2017 03:48 7,7 C 7,8 C 6,7 C 96 % 15 lf 1019,0 hPa 0,0 l/m 0 min 0 min 0 W/m 12,6 km/h (3 Bft) 94,44 %
05.05.2017 03:50 7,7 C 7,8 C 6,7 C 96 % 15 lf 1019,0 hPa 0,0 l/m 0 min 0 min 0 W/m 14,6 km/h (3 Bft) 97,37 %
05.05.2017 03:52 7,7 C 7,8 C 6,7 C 96 % 15 lf 1018,9 hPa 0,0 l/m 0 min 0 min 0 W/m 10,5 km/h (2 Bft) 97,87 %
05.05.2017 03:54 7,7 C 7,8 C 6,7 C 96 % 15 lf 1018,9 hPa 0,0 l/m 0 min 0 min 0 W/m 14,6 km/h (3 Bft) 95,83 %
05.05.2017 03:56 7,7 C 7,8 C 6,7 C 96 % 15 lf 1019,0 hPa 0,0 l/m 0 min 0 min 0 W/m 12,6 km/h (3 Bft) 97,87 %
05.05.2017 03:58 7,7 C 7,8 C 6,7 C 96 % 15 lf 1018,9 hPa 0,0 l/m 0 min 0 min 0 W/m 8,4 km/h (2 Bft) 96,30 %
05.05.2017 04:00 7,7 C 7,8 C 6,7 C 96 % 15 lf 1019,0 hPa 0,0 l/m 0 min 0 min 0 W/m 10,5 km/h (2 Bft) 94,74 %
05.05.2017 04:02 7,7 C 7,8 C 6,7 C 96 % 15 lf 1019,0 hPa 0,0 l/m 0 min 0 min 0 W/m 10,5 km/h (2 Bft) 100,00 %
05.05.2017 04:04 7,7 C 7,8 C 6,7 C 96 % 15 lf 1018,9 hPa 0,0 l/m 0 min 0 min 0 W/m 8,4 km/h (2 Bft) 95,74 %
05.05.2017 04:06 7,7 C 7,8 C 6,7 C 96 % 15 lf 1018,9 hPa 0,0 l/m 0 min 0 min 0 W/m 8,4 km/h (2 Bft) 98,15 %
05.05.2017 04:08 7,7 C 7,8 C 6,7 C 96 % 15 lf 1019,0 hPa 0,0 l/m 0 min 0 min 0 W/m 8,4 km/h (2 Bft) 97,37 %
05.05.2017 04:10 7,7 C 7,8 C 6,7 C 96 % 15 lf 1019,0 hPa 0,0 l/m 0 min 0 min 0 W/m 12,6 km/h (3 Bft) 95,83 %
05.05.2017 04:12 7,7 C 7,8 C 6,7 C 96 % 15 lf 1019,0 hPa 0,0 l/m 0 min 0 min 0 W/m 12,6 km/h (3 Bft) 95,74 %
05.05.2017 04:14 7,7 C 7,8 C 6,7 C 96 % 15 lf 1019,0 hPa 0,0 l/m 0 min 0 min 0 W/m 14,6 km/h (3 Bft) 98,15 %
05.05.2017 04:16 7,7 C 7,8 C 6,7 C 96 % 15 lf 1019,0 hPa 0,0 l/m 0 min 0 min 0 W/m 12,6 km/h (3 Bft) 94,74 %
05.05.2017 04:18 7,7 C 7,8 C 6,7 C 97 % 15 lf 1019,0 hPa 0,0 l/m 0 min 0 min 0 W/m 8,4 km/h (2 Bft) 95,83 %
05.05.2017 04:20 7,7 C 7,8 C 6,7 C 96 % 15 lf 1019,1 hPa 0,0 l/m 0 min 0 min 0 W/m 10,5 km/h (2 Bft) 97,87 %
05.05.2017 04:22 7,7 C 7,8 C 6,7 C 97 % 15 lf 1019,1 hPa 0,0 l/m 0 min 0 min 0 W/m 12,6 km/h (3 Bft) 97,87 %
05.05.2017 04:24 7,7 C 7,8 C 6,7 C 97 % 15 lf 1019,1 hPa 0,0 l/m 0 min 0 min 0 W/m 10,5 km/h (2 Bft) 98,15 %
05.05.2017 04:26 7,7 C 7,8 C 6,7 C 97 % 15 lf 1019,1 hPa 0,0 l/m 0 min 0 min 0 W/m 10,5 km/h (2 Bft) 100,00 %
05.05.2017 04:28 7,7 C 7,8 C 6,7 C 97 % 15 lf 1019,1 hPa 0,0 l/m 0 min 0 min 0 W/m 12,6 km/h (3 Bft) 95,92 %
05.05.2017 04:30 7,7 C 7,8 C 6,7 C 97 % 15 lf 1019,1 hPa 0,0 l/m 0 min 0 min 0 W/m 8,4 km/h (2 Bft) 97,83 %
05.05.2017 04:32 7,7 C 7,8 C 6,7 C 97 % 15 lf 1019,1 hPa 0,0 l/m 0 min 0 min 0 W/m 14,6 km/h (3 Bft) 98,18 %
05.05.2017 04:34 7,7 C 7,8 C 6,7 C 97 % 15 lf 1019,1 hPa 0,0 l/m 0 min 0 min 0 W/m 12,6 km/h (3 Bft) 100,00 %
05.05.2017 04:36 7,7 C 7,8 C 6,7 C 97 % 15 lf 1019,0 hPa 0,0 l/m 0 min 0 min 0 W/m 12,6 km/h (3 Bft) 97,92 %
05.05.2017 04:38 7,7 C 7,8 C 6,7 C 97 % 15 lf 1019,1 hPa 0,0 l/m 0 min 0 min 0 W/m 16,7 km/h (3 Bft) 97,87 %
05.05.2017 04:40 7,7 C 7,8 C 6,7 C 97 % 15 lf 1019,1 hPa 0,0 l/m 0 min 0 min 0 W/m 14,6 km/h (3 Bft) 98,15 %
05.05.2017 04:42 7,7 C 7,8 C 6,7 C 96 % 15 lf 1019,0 hPa 0,0 l/m 0 min 0 min 0 W/m 10,5 km/h (2 Bft) 100,00 %
05.05.2017 04:44 7,7 C 7,8 C 6,7 C 97 % 15 lf 1019,1 hPa 0,0 l/m 0 min 0 min 0 W/m 14,6 km/h (3 Bft) 97,92 %
05.05.2017 04:46 7,7 C 7,8 C 6,7 C 97 % 15 lf 1019,0 hPa 0,0 l/m 0 min 0 min 0 W/m 12,6 km/h (3 Bft) 97,87 %
05.05.2017 04:48 7,7 C 7,8 C 6,7 C 97 % 15 lf 1019,0 hPa 0,0 l/m 0 min 0 min 0 W/m 10,5 km/h (2 Bft) 98,15 %
05.05.2017 04:50 7,7 C 7,8 C 6,7 C 97 % 15 lf 1019,0 hPa 0,0 l/m 0 min 0 min 0 W/m 10,5 km/h (2 Bft) 94,74 %
05.05.2017 04:52 7,7 C 7,8 C 6,7 C 97 % 15 lf 1019,1 hPa 0,0 l/m 0 min 0 min 0 W/m 10,5 km/h (2 Bft) 97,87 %
05.05.2017 04:54 7,7 C 7,8 C 6,7 C 97 % 15 lf 1019,0 hPa 0,0 l/m 0 min 0 min 0 W/m 6,3 km/h (2 Bft) 100,00 %
05.05.2017 04:56 7,7 C 7,8 C 6,7 C 97 % 15 lf 1019,0 hPa 0,0 l/m 0 min 0 min 0 W/m 8,4 km/h (2 Bft) 100,00 %
05.05.2017 04:58 7,7 C 7,8 C 6,7 C 96 % 15 lf 1019,0 hPa 0,0 l/m 0 min 0 min 0 W/m 6,3 km/h (2 Bft) 100,00 %
05.05.2017 05:00 7,7 C 7,8 C 6,7 C 96 % 15 lf 1019,0 hPa 0,0 l/m 0 min 0 min 0 W/m 10,5 km/h (2 Bft) 97,37 %
05.05.2017 05:02 7,7 C 7,8 C 6,7 C 96 % 15 lf 1019,0 hPa 0,0 l/m 0 min 0 min 0 W/m 6,3 km/h (2 Bft) 95,92 %
05.05.2017 05:04 7,7 C 7,8 C 6,7 C 96 % 15 lf 1018,9 hPa 0,0 l/m 0 min 0 min 0 W/m 12,6 km/h (3 Bft) 100,00 %
05.05.2017 05:06 7,7 C 7,8 C 6,7 C 96 % 15 lf 1018,9 hPa 0,0 l/m 0 min 0 min 0 W/m 10,5 km/h (2 Bft) 100,00 %
05.05.2017 05:08 7,7 C 7,8 C 6,7 C 96 % 14 lf 1019,0 hPa 0,0 l/m 0 min 0 min 0 W/m 10,5 km/h (2 Bft) 97,37 %
05.05.2017 05:10 7,7 C 7,8 C 6,7 C 96 % 14 lf 1019,0 hPa 0,0 l/m 0 min 0 min 0 W/m 12,6 km/h (3 Bft) 100,00 %
05.05.2017 05:12 7,7 C 7,8 C 6,7 C 96 % 13 lf 1019,0 hPa 0,0 l/m 0 min 0 min 0 W/m 10,5 km/h (2 Bft) 95,74 %
05.05.2017 05:14 7,7 C 7,8 C 6,7 C 96 % 13 lf 1019,0 hPa 0,0 l/m 0 min 0 min 0 W/m 8,4 km/h (2 Bft) 98,15 %
05.05.2017 05:16 7,7 C 7,8 C 6,7 C 96 % 13 lf 1019,1 hPa 0,0 l/m 0 min 0 min 0 W/m 8,4 km/h (2 Bft) 100,00 %
05.05.2017 05:18 7,7 C 7,8 C 6,7 C 96 % 13 lf 1019,1 hPa 0,0 l/m 0 min 0 min 0 W/m 12,6 km/h (3 Bft) 100,00 %
05.05.2017 05:20 7,7 C 7,8 C 6,7 C 96 % 12 lf 1019,1 hPa 0,0 l/m 0 min 0 min 0 W/m 8,4 km/h (2 Bft) 100,00 %
05.05.2017 05:22 7,7 C 7,8 C 6,7 C 96 % 10 lf 1019,1 hPa 0,0 l/m 0 min 0 min 0 W/m 8,4 km/h (2 Bft) 100,00 %
05.05.2017 05:24 7,7 C 7,8 C 6,7 C 96 % 9 lf 1019,1 hPa 0,0 l/m 0 min 0 min 0 W/m 10,5 km/h (2 Bft) 98,15 %
05.05.2017 05:26 7,7 C 7,8 C 6,7 C 96 % 8 lf 1019,1 hPa 0,0 l/m 0 min 0 min 0 W/m 10,5 km/h (2 Bft) 97,37 %
05.05.2017 05:28 7,7 C 7,8 C 6,7 C 96 % 6 lf 1019,1 hPa 0,0 l/m 0 min 0 min 0 W/m 8,4 km/h (2 Bft) 95,83 %
05.05.2017 05:30 7,7 C 7,8 C 6,7 C 96 % 4 lf 1019,0 hPa 0,0 l/m 0 min 0 min 0 W/m 12,6 km/h (3 Bft) 97,87 %
05.05.2017 05:32 7,7 C 7,8 C 6,7 C 96 % 4 lf 1019,0 hPa 0,0 l/m 0 min 0 min 0 W/m 10,5 km/h (2 Bft) 94,44 %
05.05.2017 05:34 7,7 C 7,8 C 6,7 C 96 % 3 lf 1019,0 hPa 0,0 l/m 0 min 0 min 0 W/m 12,6 km/h (3 Bft) 92,11 %
05.05.2017 05:36 7,7 C 7,8 C 6,7 C 96 % 3 lf 1019,0 hPa 0,0 l/m 0 min 0 min 0 W/m 8,4 km/h (2 Bft) 89,80 %
05.05.2017 05:38 7,7 C 7,8 C 6,7 C 96 % 2 lf 1019,0 hPa 0,0 l/m 0 min 0 min 0 W/m 10,5 km/h (2 Bft) 95,65 %
05.05.2017 05:40 7,7 C 7,8 C 6,7 C 96 % 2 lf 1019,1 hPa 0,0 l/m 0 min 0 min 0 W/m 14,6 km/h (3 Bft) 94,55 %
05.05.2017 05:42 7,7 C 7,8 C 6,7 C 96 % 1 lf 1019,0 hPa 0,0 l/m 0 min 0 min 0 W/m 12,6 km/h (3 Bft) 94,74 %
05.05.2017 05:44 7,7 C 7,8 C 6,7 C 96 % 1 lf 1019,0 hPa 0,0 l/m 0 min 0 min 9 W/m 18,8 km/h (3 Bft) 95,83 %
05.05.2017 05:46 7,7 C 7,8 C 6,7 C 96 % 2 lf 1019,0 hPa 0,0 l/m 0 min 0 min 9 W/m 16,7 km/h (3 Bft) 91,49 %
05.05.2017 05:48 7,7 C 7,8 C 6,7 C 96 % 1 lf 1019,0 hPa 0,0 l/m 0 min 0 min 9 W/m 20,9 km/h (4 Bft) 94,44 %
05.05.2017 05:50 7,7 C 7,8 C 6,7 C 96 % 1 lf 1019,0 hPa 0,0 l/m 0 min 0 min 9 W/m 18,8 km/h (3 Bft) 94,74 %
05.05.2017 05:52 7,7 C 7,8 C 6,7 C 96 % 1 lf 1019,0 hPa 0,0 l/m 0 min 0 min 9 W/m 16,7 km/h (3 Bft) 93,62 %
05.05.2017 05:54 7,7 C 7,8 C 6,7 C 96 % 2 lf 1019,0 hPa 0,0 l/m 0 min 0 min 9 W/m 18,8 km/h (3 Bft) 91,67 %
05.05.2017 05:56 7,7 C 7,8 C 6,7 C 96 % 3 lf 1019,0 hPa 0,0 l/m 0 min 0 min 9 W/m 14,6 km/h (3 Bft) 93,62 %
05.05.2017 05:58 7,7 C 7,8 C 6,7 C 96 % 4 lf 1019,0 hPa 0,0 l/m 0 min 0 min 9 W/m 12,6 km/h (3 Bft) 92,59 %
05.05.2017 06:00 7,7 C 7,8 C 6,7 C 96 % 6 lf 1019,0 hPa 0,0 l/m 0 min 0 min 9 W/m 12,6 km/h (3 Bft) 92,11 %
05.05.2017 06:02 7,7 C 7,8 C 6,7 C 96 % 8 lf 1019,0 hPa 0,0 l/m 0 min 0 min 9 W/m 10,5 km/h (2 Bft) 93,75 %
05.05.2017 06:04 7,7 C 7,8 C 6,7 C 96 % 10 lf 1019,1 hPa 0,0 l/m 0 min 0 min 9 W/m 10,5 km/h (2 Bft) 93,62 %
05.05.2017 06:06 7,7 C 7,8 C 6,7 C 96 % 12 lf 1019,1 hPa 0,0 l/m 0 min 0 min 9 W/m 12,6 km/h (3 Bft) 94,44 %
05.05.2017 06:08 7,7 C 7,8 C 6,7 C 96 % 13 lf 1019,1 hPa 0,0 l/m 0 min 0 min 9 W/m 6,3 km/h (2 Bft) 87,18 %
05.05.2017 06:10 7,7 C 7,8 C 6,7 C 96 % 13 lf 1019,0 hPa 0,0 l/m 0 min 0 min 9 W/m 10,5 km/h (2 Bft) 91,67 %
05.05.2017 06:12 7,7 C 7,8 C 6,7 C 96 % 14 lf 1019,0 hPa 0,0 l/m 0 min 0 min 11 W/m 10,5 km/h (2 Bft) 89,36 %
05.05.2017 06:14 7,7 C 7,8 C 6,7 C 96 % 14 lf 1019,0 hPa 0,0 l/m 0 min 0 min 11 W/m 10,5 km/h (2 Bft) 94,44 %
05.05.2017 06:16 7,7 C 7,8 C 6,7 C 96 % 14 lf 1019,0 hPa 0,0 l/m 0 min 0 min 11 W/m 8,4 km/h (2 Bft) 92,11 %
05.05.2017 06:18 7,7 C 7,8 C 6,7 C 96 % 14 lf 1019,0 hPa 0,0 l/m 0 min 0 min 11 W/m 6,3 km/h (2 Bft) 93,75 %
05.05.2017 06:20 7,7 C 7,8 C 6,7 C 96 % 14 lf 1019,0 hPa 0,0 l/m 0 min 0 min 11 W/m 8,4 km/h (2 Bft) 91,49 %
05.05.2017 06:22 7,7 C 7,8 C 6,7 C 96 % 14 lf 1019,0 hPa 0,0 l/m 0 min 0 min 11 W/m 6,3 km/h (2 Bft) 95,74 %
05.05.2017 06:24 7,7 C 7,8 C 6,7 C 96 % 14 lf 1019,0 hPa 0,0 l/m 0 min 0 min 11 W/m 10,5 km/h (2 Bft) 94,44 %
05.05.2017 06:26 7,7 C 7,8 C 6,7 C 96 % 15 lf 1019,0 hPa 0,0 l/m 0 min 0 min 12 W/m 10,5 km/h (2 Bft) 97,37 %
05.05.2017 06:28 7,7 C 7,8 C 6,7 C 96 % 15 lf 1019,0 hPa 0,0 l/m 0 min 0 min 12 W/m 10,5 km/h (2 Bft) 95,83 %
05.05.2017 06:30 7,7 C 7,8 C 6,7 C 96 % 15 lf 1019,0 hPa 0,0 l/m 0 min 0 min 12 W/m 10,5 km/h (2 Bft) 91,49 %
05.05.2017 06:32 7,7 C 7,8 C 6,7 C 96 % 15 lf 1019,0 hPa 0,0 l/m 0 min 0 min 12 W/m 10,5 km/h (2 Bft) 96,30 %
05.05.2017 06:34 7,7 C 7,8 C 6,7 C 96 % 15 lf 1019,0 hPa 0,0 l/m 0 min 0 min 12 W/m 12,6 km/h (3 Bft) 97,37 %
05.05.2017 06:36 7,7 C 7,8 C 6,7 C 96 % 15 lf 1019,0 hPa 0,0 l/m 0 min 0 min 12 W/m 14,6 km/h (3 Bft) 97,96 %
05.05.2017 06:38 7,7 C 7,8 C 6,7 C 96 % 15 lf 1018,9 hPa 0,0 l/m 0 min 0 min 14 W/m 14,6 km/h (3 Bft) 97,83 %
05.05.2017 06:40 7,7 C 7,8 C 6,7 C 96 % 15 lf 1019,0 hPa 0,0 l/m 0 min 0 min 13 W/m 12,6 km/h (3 Bft) 96,36 %
05.05.2017 06:42 7,6 C 7,8 C 6,7 C 96 % 15 lf 1018,9 hPa 0,0 l/m 0 min 0 min 14 W/m 10,5 km/h (2 Bft) 100,00 %
05.05.2017 06:44 7,6 C 7,8 C 6,7 C 96 % 15 lf 1019,0 hPa 0,0 l/m 0 min 0 min 14 W/m 14,6 km/h (3 Bft) 95,83 %
05.05.2017 06:46 7,6 C 7,8 C 6,7 C 96 % 15 lf 1019,0 hPa 0,0 l/m 0 min 0 min 14 W/m 12,6 km/h (3 Bft) 95,74 %
05.05.2017 06:48 7,6 C 7,8 C 6,7 C 96 % 15 lf 1019,0 hPa 0,0 l/m 0 min 0 min 14 W/m 12,6 km/h (3 Bft) 98,15 %
05.05.2017 06:50 7,6 C 7,8 C 6,7 C 96 % 15 lf 1019,0 hPa 0,0 l/m 0 min 0 min 14 W/m 8,4 km/h (2 Bft) 97,37 %
05.05.2017 06:52 7,6 C 7,8 C 6,7 C 96 % 15 lf 1019,0 hPa 0,0 l/m 0 min 0 min 14 W/m 8,4 km/h (2 Bft) 97,87 %
05.05.2017 06:54 7,6 C 7,8 C 6,7 C 96 % 15 lf 1019,0 hPa 0,0 l/m 0 min 0 min 14 W/m 10,5 km/h (2 Bft) 97,92 %
05.05.2017 06:56 7,6 C 7,8 C 6,7 C 96 % 15 lf 1019,0 hPa 0,0 l/m 0 min 0 min 14 W/m 10,5 km/h (2 Bft) 93,62 %
05.05.2017 06:58 7,6 C 7,8 C 6,7 C 96 % 15 lf 1019,0 hPa 0,0 l/m 0 min 0 min 14 W/m 16,7 km/h (3 Bft) 94,44 %
05.05.2017 07:00 7,6 C 7,8 C 6,7 C 96 % 15 lf 1019,1 hPa 0,0 l/m 0 min 0 min 14 W/m 10,5 km/h (2 Bft) 97,37 %
05.05.2017 07:02 7,6 C 7,8 C 6,7 C 96 % 15 lf 1019,1 hPa 0,0 l/m 0 min 0 min 14 W/m 10,5 km/h (2 Bft) 95,83 %
05.05.2017 07:04 7,6 C 7,8 C 6,7 C 96 % 15 lf 1019,1 hPa 0,0 l/m 0 min 0 min 14 W/m 10,5 km/h (2 Bft) 97,87 %
05.05.2017 07:06 7,6 C 7,8 C 6,7 C 96 % 15 lf 1019,1 hPa 0,0 l/m 0 min 0 min 13 W/m 12,6 km/h (3 Bft) 100,00 %
05.05.2017 07:08 7,6 C 7,8 C 6,7 C 96 % 15 lf 1019,1 hPa 0,0 l/m 0 min 0 min 14 W/m 10,5 km/h (2 Bft) 100,00 %
05.05.2017 07:10 7,6 C 7,8 C 6,7 C 96 % 15 lf 1019,1 hPa 0,0 l/m 0 min 0 min 14 W/m 14,6 km/h (3 Bft) 100,00 %
05.05.2017 07:12 7,6 C 7,8 C 6,7 C 96 % 15 lf 1019,1 hPa 0,0 l/m 0 min 0 min 13 W/m 10,5 km/h (2 Bft) 97,83 %
05.05.2017 07:14 7,6 C 7,8 C 6,7 C 96 % 15 lf 1019,2 hPa 0,0 l/m 0 min 0 min 13 W/m 12,6 km/h (3 Bft) 98,18 %
05.05.2017 07:16 7,6 C 7,8 C 6,7 C 97 % 15 lf 1019,2 hPa 0,0 l/m 0 min 0 min 14 W/m 6,3 km/h (2 Bft) 94,74 %
05.05.2017 07:18 7,6 C 7,8 C 6,7 C 97 % 15 lf 1019,2 hPa 0,0 l/m 0 min 0 min 14 W/m 10,5 km/h (2 Bft) 100,00 %
05.05.2017 07:20 7,6 C 7,8 C 6,7 C 97 % 15 lf 1019,2 hPa 0,0 l/m 0 min 0 min 14 W/m 10,5 km/h (2 Bft) 100,00 %
05.05.2017 07:22 7,6 C 7,8 C 6,7 C 97 % 15 lf 1019,2 hPa 0,0 l/m 0 min 0 min 14 W/m 10,5 km/h (2 Bft) 100,00 %
05.05.2017 07:24 7,6 C 7,8 C 6,7 C 97 % 15 lf 1019,2 hPa 0,0 l/m 0 min 0 min 14 W/m 10,5 km/h (2 Bft) 100,00 %
05.05.2017 07:26 7,6 C 7,8 C 6,7 C 97 % 15 lf 1019,2 hPa 0,0 l/m 0 min 0 min 12 W/m 10,5 km/h (2 Bft) 97,37 %
05.05.2017 07:28 7,6 C 7,8 C 6,7 C 97 % 15 lf 1019,2 hPa 0,0 l/m 0 min 0 min 12 W/m 14,6 km/h (3 Bft) 100,00 %
05.05.2017 07:30 7,6 C 7,8 C 6,7 C 97 % 15 lf 1019,2 hPa 0,0 l/m 0 min 0 min 12 W/m 12,6 km/h (3 Bft) 100,00 %
05.05.2017 07:32 7,6 C 7,8 C 6,7 C 97 % 15 lf 1019,3 hPa 0,0 l/m 0 min 0 min 13 W/m 8,4 km/h (2 Bft) 98,15 %
05.05.2017 07:34 7,6 C 7,8 C 6,7 C 97 % 15 lf 1019,3 hPa 0,0 l/m 0 min 0 min 14 W/m 10,5 km/h (2 Bft) 100,00 %
05.05.2017 07:36 7,6 C 7,8 C 6,7 C 97 % 15 lf 1019,2 hPa 0,0 l/m 0 min 0 min 14 W/m 12,6 km/h (3 Bft) 100,00 %
05.05.2017 07:38 7,6 C 7,8 C 6,7 C 97 % 15 lf 1019,3 hPa 0,0 l/m 0 min 0 min 14 W/m 10,5 km/h (2 Bft) 97,87 %
05.05.2017 07:40 7,6 C 7,8 C 6,7 C 97 % 15 lf 1019,3 hPa 0,0 l/m 0 min 0 min 14 W/m 8,4 km/h (2 Bft) 98,15 %
05.05.2017 07:42 7,6 C 7,8 C 6,7 C 97 % 15 lf 1019,3 hPa 0,0 l/m 0 min 0 min 14 W/m 8,4 km/h (2 Bft) 94,74 %
05.05.2017 07:44 7,6 C 7,8 C 6,7 C 97 % 15 lf 1019,3 hPa 0,0 l/m 0 min 0 min 14 W/m 6,3 km/h (2 Bft) 97,96 %
05.05.2017 07:46 7,6 C 7,8 C 6,7 C 97 % 15 lf 1019,3 hPa 0,0 l/m 0 min 0 min 14 W/m 10,5 km/h (2 Bft) 97,87 %
05.05.2017 07:48 7,6 C 7,8 C 6,7 C 97 % 15 lf 1019,3 hPa 0,0 l/m 0 min 0 min 15 W/m 14,6 km/h (3 Bft) 98,15 %
05.05.2017 07:50 7,6 C 7,8 C 6,7 C 97 % 15 lf 1019,3 hPa 0,0 l/m 0 min 0 min 16 W/m 12,6 km/h (3 Bft) 97,37 %
05.05.2017 07:52 7,6 C 7,8 C 6,7 C 97 % 15 lf 1019,3 hPa 0,0 l/m 0 min 0 min 15 W/m 14,6 km/h (3 Bft) 95,74 %
05.05.2017 07:54 7,6 C 7,8 C 6,7 C 97 % 15 lf 1019,3 hPa 0,0 l/m 0 min 0 min 16 W/m 8,4 km/h (2 Bft) 97,92 %
05.05.2017 07:56 7,6 C 7,8 C 6,7 C 97 % 15 lf 1019,3 hPa 0,0 l/m 0 min 0 min 16 W/m 10,5 km/h (2 Bft) 97,87 %
05.05.2017 07:58 7,6 C 7,8 C 6,7 C 97 % 15 lf 1019,3 hPa 0,0 l/m 0 min 0 min 16 W/m 8,4 km/h (2 Bft) 96,30 %
05.05.2017 08:00 7,6 C 7,8 C 6,7 C 97 % 15 lf 1019,3 hPa 0,0 l/m 0 min 0 min 16 W/m 6,3 km/h (2 Bft) 94,74 %
05.05.2017 08:02 7,6 C 7,8 C 6,7 C 97 % 15 lf 1019,3 hPa 0,0 l/m 0 min 0 min 16 W/m 8,4 km/h (2 Bft) 95,83 %
05.05.2017 08:04 7,7 C 7,8 C 6,7 C 97 % 15 lf 1019,3 hPa 0,0 l/m 0 min 0 min 16 W/m 8,4 km/h (2 Bft) 97,87 %
05.05.2017 08:06 7,7 C 7,8 C 6,7 C 97 % 15 lf 1019,4 hPa 0,0 l/m 0 min 0 min 16 W/m 8,4 km/h (2 Bft) 97,78 %
05.05.2017 08:08 7,7 C 7,8 C 6,7 C 97 % 15 lf 1019,4 hPa 0,0 l/m 0 min 0 min 16 W/m 8,4 km/h (2 Bft) 95,92 %
05.05.2017 08:10 7,7 C 7,8 C 6,7 C 97 % 15 lf 1019,4 hPa 0,0 l/m 0 min 0 min 16 W/m 10,5 km/h (2 Bft) 95,65 %
05.05.2017 08:12 7,7 C 7,8 C 6,7 C 97 % 15 lf 1019,4 hPa 0,0 l/m 0 min 0 min 17 W/m 12,6 km/h (3 Bft) 92,73 %
05.05.2017 08:14 7,7 C 7,8 C 6,7 C 97 % 15 lf 1019,3 hPa 0,0 l/m 0 min 0 min 18 W/m 8,4 km/h (2 Bft) 97,37 %
05.05.2017 08:16 7,7 C 7,8 C 6,7 C 97 % 15 lf 1019,4 hPa 0,0 l/m 0 min 0 min 18 W/m 10,5 km/h (2 Bft) 95,83 %
05.05.2017 08:18 7,7 C 7,8 C 6,7 C 97 % 15 lf 1019,4 hPa 0,0 l/m 0 min 0 min 18 W/m 8,4 km/h (2 Bft) 97,87 %
05.05.2017 08:20 7,7 C 7,8 C 6,7 C 97 % 15 lf 1019,4 hPa 0,0 l/m 0 min 0 min 18 W/m 8,4 km/h (2 Bft) 96,30 %
05.05.2017 08:22 7,7 C 7,8 C 6,7 C 97 % 15 lf 1019,4 hPa 0,0 l/m 0 min 0 min 19 W/m 8,4 km/h (2 Bft) 97,87 %
05.05.2017 08:24 7,7 C 7,8 C 6,7 C 97 % 15 lf 1019,4 hPa 0,0 l/m 0 min 0 min 19 W/m 8,4 km/h (2 Bft) 97,37 %
05.05.2017 08:26 7,7 C 8,3 C 6,7 C 97 % 15 lf 1019,4 hPa 0,0 l/m 0 min 0 min 19 W/m 6,3 km/h (2 Bft) 97,92 %
05.05.2017 08:28 7,7 C 8,3 C 6,7 C 97 % 15 lf 1019,4 hPa 0,0 l/m 0 min 0 min 21 W/m 10,5 km/h (2 Bft) 97,87 %
05.05.2017 08:30 7,7 C 8,3 C 6,7 C 97 % 15 lf 1019,4 hPa 0,0 l/m 0 min 0 min 22 W/m 8,4 km/h (2 Bft) 98,15 %
05.05.2017 08:32 7,7 C 8,3 C 6,7 C 97 % 15 lf 1019,4 hPa 0,0 l/m 0 min 0 min 24 W/m 8,4 km/h (2 Bft) 97,37 %
05.05.2017 08:34 7,7 C 8,3 C 6,7 C 97 % 15 lf 1019,4 hPa 0,0 l/m 0 min 0 min 25 W/m 8,4 km/h (2 Bft) 97,92 %
05.05.2017 08:36 7,7 C 8,3 C 6,7 C 97 % 15 lf 1019,5 hPa 0,0 l/m 0 min 0 min 27 W/m 10,5 km/h (2 Bft) 97,87 %
05.05.2017 08:38 7,7 C 8,3 C 6,7 C 97 % 15 lf 1019,5 hPa 0,0 l/m 0 min 0 min 28 W/m 10,5 km/h (2 Bft) 94,44 %
05.05.2017 08:40 7,7 C 8,3 C 6,7 C 97 % 15 lf 1019,5 hPa 0,0 l/m 0 min 0 min 25 W/m 8,4 km/h (2 Bft) 97,44 %
05.05.2017 08:42 7,7 C 8,3 C 6,7 C 97 % 15 lf 1019,5 hPa 0,0 l/m 0 min 0 min 24 W/m 6,3 km/h (2 Bft) 93,75 %
05.05.2017 08:44 7,7 C 8,3 C 6,7 C 97 % 15 lf 1019,4 hPa 0,0 l/m 0 min 0 min 24 W/m 10,5 km/h (2 Bft) 97,87 %
05.05.2017 08:46 7,7 C 8,3 C 6,7 C 97 % 15 lf 1019,5 hPa 0,0 l/m 0 min 0 min 28 W/m 8,4 km/h (2 Bft) 96,30 %
05.05.2017 08:48 7,7 C 8,3 C 6,7 C 97 % 15 lf 1019,4 hPa 0,0 l/m 0 min 0 min 33 W/m 8,4 km/h (2 Bft) 97,37 %
05.05.2017 08:50 7,7 C 8,3 C 7,2 C 97 % 15 lf 1019,5 hPa 0,0 l/m 0 min 0 min 32 W/m 8,4 km/h (2 Bft) 97,92 %
05.05.2017 08:52 7,7 C 8,3 C 7,2 C 97 % 15 lf 1019,4 hPa 0,0 l/m 0 min 0 min 33 W/m 8,4 km/h (2 Bft) 97,87 %
05.05.2017 08:54 7,8 C 8,3 C 7,2 C 97 % 15 lf 1019,4 hPa 0,0 l/m 0 min 0 min 33 W/m 8,4 km/h (2 Bft) 97,87 %
05.05.2017 08:56 7,8 C 8,3 C 7,2 C 97 % 15 lf 1019,4 hPa 0,0 l/m 0 min 0 min 31 W/m 8,4 km/h (2 Bft) 98,15 %
05.05.2017 08:58 7,8 C 8,3 C 7,2 C 97 % 15 lf 1019,5 hPa 0,0 l/m 0 min 0 min 32 W/m 6,3 km/h (2 Bft) 97,37 %
05.05.2017 09:00 7,8 C 8,9 C 7,2 C 97 % 15 lf 1019,5 hPa 0,0 l/m 0 min 0 min 35 W/m 6,3 km/h (2 Bft) 100,00 %
05.05.2017 09:02 7,8 C 8,9 C 7,2 C 97 % 15 lf 1019,5 hPa 0,0 l/m 0 min 0 min 34 W/m 6,3 km/h (2 Bft) 100,00 %
05.05.2017 09:04 7,8 C 8,9 C 7,2 C 97 % 15 lf 1019,5 hPa 0,0 l/m 0 min 0 min 35 W/m 8,4 km/h (2 Bft) 98,15 %
05.05.2017 09:06 7,8 C 8,9 C 7,2 C 97 % 15 lf 1019,5 hPa 0,0 l/m 0 min 0 min 37 W/m 8,4 km/h (2 Bft) 100,00 %
05.05.2017 09:08 7,9 C 8,9 C 7,2 C 97 % 15 lf 1019,5 hPa 0,0 l/m 0 min 0 min 37 W/m 6,3 km/h (2 Bft) 100,00 %
05.05.2017 09:10 7,9 C 8,9 C 7,2 C 97 % 15 lf 1019,6 hPa 0,0 l/m 0 min 0 min 41 W/m 6,3 km/h (2 Bft) 97,83 %
05.05.2017 09:12 7,9 C 8,9 C 7,2 C 97 % 15 lf 1019,5 hPa 0,0 l/m 0 min 0 min 48 W/m 10,5 km/h (2 Bft) 98,18 %
05.05.2017 09:14 7,9 C 8,9 C 7,8 C 97 % 15 lf 1019,5 hPa 0,0 l/m 0 min 0 min 60 W/m 12,6 km/h (3 Bft) 94,74 %
05.05.2017 09:16 7,9 C 9,4 C 7,8 C 97 % 15 lf 1019,5 hPa 0,0 l/m 0 min 0 min 63 W/m 8,4 km/h (2 Bft) 97,92 %
05.05.2017 09:18 7,9 C 9,4 C 7,8 C 97 % 15 lf 1019,6 hPa 0,0 l/m 0 min 0 min 61 W/m 6,3 km/h (2 Bft) 93,62 %
05.05.2017 09:20 7,9 C 9,4 C 7,8 C 97 % 15 lf 1019,5 hPa 0,0 l/m 0 min 0 min 59 W/m 10,5 km/h (2 Bft) 96,30 %
05.05.2017 09:22 8,0 C 9,4 C 7,8 C 97 % 15 lf 1019,5 hPa 0,0 l/m 0 min 0 min 60 W/m 10,5 km/h (2 Bft) 95,74 %
05.05.2017 09:24 8,0 C 9,4 C 7,8 C 97 % 15 lf 1019,6 hPa 0,0 l/m 0 min 0 min 51 W/m 10,5 km/h (2 Bft) 97,37 %
05.05.2017 09:26 8,0 C 9,4 C 7,8 C 97 % 15 lf 1019,5 hPa 0,0 l/m 0 min 0 min 49 W/m 10,5 km/h (2 Bft) 95,83 %
05.05.2017 09:28 8,1 C 9,4 C 7,8 C 97 % 15 lf 1019,6 hPa 0,0 l/m 0 min 0 min 49 W/m 10,5 km/h (2 Bft) 95,74 %
05.05.2017 09:30 8,1 C 9,4 C 7,8 C 97 % 14 lf 1019,5 hPa 0,0 l/m 0 min 0 min 56 W/m 8,4 km/h (2 Bft) 94,44 %
05.05.2017 09:32 8,1 C 9,4 C 7,8 C 97 % 13 lf 1019,6 hPa 0,0 l/m 0 min 0 min 60 W/m 10,5 km/h (2 Bft) 94,74 %
05.05.2017 09:34 8,1 C 9,4 C 7,8 C 97 % 10 lf 1019,5 hPa 0,0 l/m 0 min 0 min 60 W/m 12,6 km/h (3 Bft) 89,36 %
05.05.2017 09:36 8,1 C 9,4 C 7,8 C 97 % 6 lf 1019,6 hPa 0,0 l/m 0 min 0 min 49 W/m 12,6 km/h (3 Bft) 91,49 %
05.05.2017 09:38 8,1 C 9,4 C 7,8 C 97 % 3 lf 1019,6 hPa 0,0 l/m 0 min 0 min 46 W/m 12,6 km/h (3 Bft) 91,49 %
05.05.2017 09:40 8,2 C 9,4 C 7,8 C 97 % 2 lf 1019,6 hPa 0,0 l/m 0 min 0 min 42 W/m 14,6 km/h (3 Bft) 93,48 %
05.05.2017 09:42 8,2 C 9,4 C 7,8 C 97 % 1 lf 1019,6 hPa 0,0 l/m 0 min 0 min 46 W/m 12,6 km/h (3 Bft) 93,33 %
05.05.2017 09:44 8,2 C 9,4 C 7,8 C 97 % 0 lf 1019,6 hPa 0,0 l/m 0 min 0 min 45 W/m 10,5 km/h (2 Bft) 94,00 %
05.05.2017 09:46 8,2 C 9,4 C 7,8 C 97 % 0 lf 1019,7 hPa 0,0 l/m 0 min 0 min 42 W/m 14,6 km/h (3 Bft) 93,62 %
05.05.2017 09:48 8,2 C 9,4 C 7,8 C 97 % 0 lf 1019,7 hPa 0,0 l/m 0 min 0 min 39 W/m 14,6 km/h (3 Bft) 93,62 %
05.05.2017 09:50 8,2 C 9,4 C 7,8 C 97 % 0 lf 1019,7 hPa 0,0 l/m 0 min 0 min 40 W/m 10,5 km/h (2 Bft) 93,62 %
05.05.2017 09:52 8,2 C 9,4 C 7,8 C 97 % 0 lf 1019,6 hPa 0,0 l/m 0 min 0 min 46 W/m 12,6 km/h (3 Bft) 95,74 %
05.05.2017 09:54 8,2 C 9,4 C 7,8 C 97 % 0 lf 1019,6 hPa 0,0 l/m 0 min 0 min 55 W/m 10,5 km/h (2 Bft) 91,49 %
05.05.2017 09:56 8,2 C 9,4 C 8,3 C 97 % 0 lf 1019,6 hPa 0,0 l/m 0 min 0 min 62 W/m 8,4 km/h (2 Bft) 91,30 %
05.05.2017 09:58 8,2 C 10,0 C 8,3 C 97 % 0 lf 1019,6 hPa 0,0 l/m 0 min 0 min 69 W/m 10,5 km/h (2 Bft) 91,49 %
05.05.2017 10:00 8,2 C 10,0 C 8,3 C 97 % 0 lf 1019,6 hPa 0,0 l/m 0 min 0 min 69 W/m 10,5 km/h (2 Bft) 93,62 %
05.05.2017 10:02 8,3 C 10,6 C 8,9 C 97 % 0 lf 1019,6 hPa 0,0 l/m 0 min 0 min 70 W/m 8,4 km/h (2 Bft) 95,74 %
05.05.2017 10:04 8,3 C 10,6 C 8,9 C 97 % 0 lf 1019,5 hPa 0,0 l/m 0 min 0 min 80 W/m 10,5 km/h (2 Bft) 93,62 %
05.05.2017 10:06 8,3 C 11,1 C 8,9 C 97 % 0 lf 1019,6 hPa 0,0 l/m 0 min 0 min 89 W/m 14,6 km/h (3 Bft) 93,62 %
05.05.2017 10:08 8,4 C 11,1 C 9,4 C 97 % 0 lf 1019,6 hPa 0,0 l/m 0 min 0 min 87 W/m 10,5 km/h (2 Bft) 93,48 %
05.05.2017 10:10 8,4 C 10,6 C 8,9 C 97 % 0 lf 1019,5 hPa 0,0 l/m 0 min 0 min 81 W/m 14,6 km/h (3 Bft) 97,87 %
05.05.2017 10:12 8,4 C 10,6 C 8,9 C 97 % 0 lf 1019,5 hPa 0,0 l/m 0 min 0 min 94 W/m 14,6 km/h (3 Bft) 97,87 %
05.05.2017 10:14 8,4 C 10,6 C 9,4 C 97 % 0 lf 1019,5 hPa 0,0 l/m 0 min 0 min 102 W/m 14,6 km/h (3 Bft) 97,87 %
05.05.2017 10:16 8,4 C 10,6 C 9,4 C 97 % 0 lf 1019,5 hPa 0,0 l/m 0 min 0 min 99 W/m 10,5 km/h (2 Bft) 97,87 %
05.05.2017 10:18 8,5 C 11,1 C 9,4 C 97 % 0 lf 1019,5 hPa 0,0 l/m 0 min 0 min 110 W/m 10,5 km/h (2 Bft) 97,87 %
05.05.2017 10:20 8,5 C 11,7 C 10,0 C 97 % 0 lf 1019,5 hPa 0,0 l/m 0 min 0 min 136 W/m 12,6 km/h (3 Bft) 97,83 %
05.05.2017 10:22 8,6 C 11,7 C 10,0 C 97 % 0 lf 1019,5 hPa 0,0 l/m 0 min 0 min 139 W/m 14,6 km/h (3 Bft) 97,87 %
05.05.2017 10:24 8,6 C 11,7 C 10,0 C 97 % 0 lf 1019,5 hPa 0,0 l/m 0 min 0 min 113 W/m 12,6 km/h (3 Bft) 91,49 %
05.05.2017 10:26 8,6 C 11,7 C 10,0 C 97 % 0 lf 1019,5 hPa 0,0 l/m 0 min 0 min 98 W/m 12,6 km/h (3 Bft) 97,87 %
05.05.2017 10:28 8,7 C 11,7 C 10,0 C 97 % 0 lf 1019,5 hPa 0,0 l/m 0 min 0 min 98 W/m 10,5 km/h (2 Bft) 95,74 %
05.05.2017 10:30 8,7 C 11,1 C 10,0 C 97 % 0 lf 1019,5 hPa 0,0 l/m 0 min 0 min 100 W/m 10,5 km/h (2 Bft) 100,00 %
05.05.2017 10:32 8,7 C 11,1 C 10,0 C 97 % 0 lf 1019,4 hPa 0,0 l/m 0 min 0 min 98 W/m 8,4 km/h (2 Bft) 100,00 %
05.05.2017 10:34 8,7 C 11,1 C 10,0 C 97 % 0 lf 1019,5 hPa 0,0 l/m 0 min 0 min 100 W/m 10,5 km/h (2 Bft) 95,74 %
05.05.2017 10:36 8,8 C 11,1 C 9,4 C 97 % 0 lf 1019,6 hPa 0,0 l/m 0 min 0 min 87 W/m 12,6 km/h (3 Bft) 100,00 %
05.05.2017 10:38 8,8 C 11,1 C 10,0 C 97 % 0 lf 1019,5 hPa 0,0 l/m 0 min 0 min 81 W/m 6,3 km/h (2 Bft) 97,87 %
05.05.2017 10:40 8,8 C 11,7 C 10,0 C 97 % 0 lf 1019,5 hPa 0,0 l/m 0 min 0 min 83 W/m 6,3 km/h (2 Bft) 100,00 %
05.05.2017 10:42 8,8 C 11,7 C 10,0 C 97 % 0 lf 1019,5 hPa 0,0 l/m 0 min 0 min 83 W/m 8,4 km/h (2 Bft) 100,00 %
05.05.2017 10:44 8,9 C 11,7 C 10,0 C 97 % 0 lf 1019,5 hPa 0,0 l/m 0 min 0 min 83 W/m 10,5 km/h (2 Bft) 97,83 %
05.05.2017 10:46 8,9 C 11,1 C 10,0 C 97 % 0 lf 1019,5 hPa 0,0 l/m 0 min 0 min 84 W/m 14,6 km/h (3 Bft) 97,87 %
05.05.2017 10:48 8,9 C 11,1 C 9,4 C 97 % 0 lf 1019,5 hPa 0,0 l/m 0 min 0 min 79 W/m 12,6 km/h (3 Bft) 97,87 %
05.05.2017 10:50 8,9 C 11,1 C 9,4 C 97 % 0 lf 1019,6 hPa 0,0 l/m 0 min 0 min 77 W/m 12,6 km/h (3 Bft) 100,00 %
05.05.2017 10:52 8,9 C 11,1 C 9,4 C 97 % 0 lf 1019,5 hPa 0,0 l/m 0 min 0 min 86 W/m 10,5 km/h (2 Bft) 100,00 %
05.05.2017 10:54 8,9 C 11,1 C 10,0 C 97 % 0 lf 1019,6 hPa 0,0 l/m 0 min 0 min 90 W/m 12,6 km/h (3 Bft) 100,00 %
05.05.2017 10:56 9,0 C 11,7 C 10,0 C 97 % 0 lf 1019,5 hPa 0,0 l/m 0 min 0 min 87 W/m 12,6 km/h (3 Bft) 95,74 %
05.05.2017 10:58 9,1 C 11,7 C 10,0 C 97 % 0 lf 1019,6 hPa 0,0 l/m 0 min 0 min 95 W/m 10,5 km/h (2 Bft) 97,87 %
05.05.2017 11:00 9,1 C 11,7 C 10,6 C 96 % 0 lf 1019,5 hPa 0,0 l/m 0 min 0 min 108 W/m 8,4 km/h (2 Bft) 97,87 %
05.05.2017 11:02 9,1 C 11,7 C 10,6 C 96 % 0 lf 1019,5 hPa 0,0 l/m 0 min 0 min 127 W/m 8,4 km/h (2 Bft) 97,73 %
05.05.2017 11:04 9,1 C 12,2 C 10,6 C 96 % 0 lf 1019,6 hPa 0,0 l/m 0 min 0 min 135 W/m 10,5 km/h (2 Bft) 95,74 %
05.05.2017 11:06 9,2 C 12,2 C 11,1 C 96 % 0 lf 1019,6 hPa 0,0 l/m 0 min 0 min 130 W/m 8,4 km/h (2 Bft) 95,74 %
05.05.2017 11:08 9,2 C 12,2 C 11,1 C 96 % 0 lf 1019,6 hPa 0,0 l/m 0 min 0 min 120 W/m 10,5 km/h (2 Bft) 97,87 %
05.05.2017 11:10 9,2 C 12,2 C 10,6 C 96 % 0 lf 1019,7 hPa 0,0 l/m 0 min 0 min 107 W/m 10,5 km/h (2 Bft) 97,87 %
05.05.2017 11:12 9,3 C 12,2 C 10,6 C 96 % 0 lf 1019,6 hPa 0,0 l/m 0 min 0 min 97 W/m 10,5 km/h (2 Bft) 95,74 %
05.05.2017 11:14 9,3 C 11,7 C 10,6 C 96 % 0 lf 1019,6 hPa 0,0 l/m 0 min 0 min 88 W/m 10,5 km/h (2 Bft) 97,83 %
05.05.2017 11:16 9,3 C 11,7 C 10,0 C 96 % 0 lf 1019,6 hPa 0,0 l/m 0 min 0 min 83 W/m 10,5 km/h (2 Bft) 95,74 %
05.05.2017 11:18 9,3 C 11,7 C 10,6 C 95 % 0 lf 1019,6 hPa 0,0 l/m 0 min 0 min 81 W/m 6,3 km/h (2 Bft) 97,87 %
05.05.2017 11:20 9,3 C 11,7 C 10,6 C 95 % 0 lf 1019,7 hPa 0,0 l/m 0 min 0 min 83 W/m 8,4 km/h (2 Bft) 98,31 %
05.05.2017 11:22 9,4 C 11,7 C 10,6 C 95 % 0 lf 1019,7 hPa 0,0 l/m 0 min 0 min 85 W/m 8,4 km/h (2 Bft) 97,14 %
05.05.2017 11:24 9,4 C 11,7 C 10,6 C 95 % 0 lf 1019,7 hPa 0,0 l/m 0 min 0 min 91 W/m 8,4 km/h (2 Bft) 91,49 %
05.05.2017 11:26 9,4 C 11,7 C 10,6 C 95 % 0 lf 1019,6 hPa 0,0 l/m 0 min 0 min 95 W/m 8,4 km/h (2 Bft) 95,65 %
05.05.2017 11:28 9,5 C 11,7 C 10,6 C 95 % 0 lf 1019,7 hPa 0,0 l/m 0 min 0 min 97 W/m 8,4 km/h (2 Bft) 96,00 %
05.05.2017 11:30 9,5 C 11,7 C 10,6 C 94 % 0 lf 1019,6 hPa 0,0 l/m 0 min 0 min 94 W/m 12,6 km/h (3 Bft) 97,83 %
05.05.2017 11:32 9,5 C 11,7 C 10,6 C 94 % 0 lf 1019,5 hPa 0,0 l/m 0 min 0 min 92 W/m 10,5 km/h (2 Bft) 95,74 %
05.05.2017 11:34 9,5 C 11,7 C 10,6 C 94 % 0 lf 1019,5 hPa 0,0 l/m 0 min 0 min 88 W/m 8,4 km/h (2 Bft) 95,74 %
05.05.2017 11:36 9,6 C 11,7 C 10,6 C 94 % 0 lf 1019,6 hPa 0,0 l/m 0 min 0 min 86 W/m 10,5 km/h (2 Bft) 95,74 %
05.05.2017 11:38 9,6 C 12,2 C 10,6 C 94 % 0 lf 1019,6 hPa 0,0 l/m 0 min 0 min 92 W/m 10,5 km/h (2 Bft) 95,74 %
05.05.2017 11:40 9,6 C 11,7 C 10,6 C 94 % 0 lf 1019,6 hPa 0,0 l/m 0 min 0 min 96 W/m 8,4 km/h (2 Bft) 93,62 %
05.05.2017 11:42 9,7 C 11,7 C 10,6 C 93 % 0 lf 1019,6 hPa 0,0 l/m 0 min 0 min 92 W/m 10,5 km/h (2 Bft) 95,65 %
05.05.2017 11:44 9,7 C 11,7 C 10,6 C 93 % 0 lf 1019,7 hPa 0,0 l/m 0 min 0 min 86 W/m 12,6 km/h (3 Bft) 95,74 %
05.05.2017 11:46 9,7 C 11,7 C 10,6 C 93 % 0 lf 1019,7 hPa 0,0 l/m 0 min 0 min 81 W/m 12,6 km/h (3 Bft) 95,74 %
05.05.2017 11:48 9,7 C 11,7 C 10,0 C 93 % 0 lf 1019,7 hPa 0,0 l/m 0 min 0 min 75 W/m 10,5 km/h (2 Bft) 95,74 %
05.05.2017 11:50 9,8 C 11,7 C 10,6 C 93 % 0 lf 1019,7 hPa 0,0 l/m 0 min 0 min 68 W/m 12,6 km/h (3 Bft) 95,74 %
05.05.2017 11:52 9,8 C 11,7 C 10,6 C 92 % 0 lf 1019,7 hPa 0,0 l/m 0 min 0 min 67 W/m 10,5 km/h (2 Bft) 97,83 %
05.05.2017 11:54 9,8 C 11,7 C 10,0 C 92 % 0 lf 1019,7 hPa 0,0 l/m 0 min 0 min 68 W/m 10,5 km/h (2 Bft) 97,87 %
05.05.2017 11:56 9,8 C 11,7 C 10,0 C 92 % 0 lf 1019,7 hPa 0,0 l/m 0 min 0 min 68 W/m 8,4 km/h (2 Bft) 97,87 %
05.05.2017 11:58 9,8 C 11,7 C 10,0 C 92 % 0 lf 1019,8 hPa 0,0 l/m 0 min 0 min 67 W/m 6,3 km/h (2 Bft) 95,74 %
05.05.2017 12:00 9,8 C 11,7 C 10,6 C 92 % 0 lf 1019,8 hPa 0,0 l/m 0 min 0 min 67 W/m 6,3 km/h (2 Bft) 97,87 %
05.05.2017 12:02 9,8 C 11,7 C 10,6 C 92 % 0 lf 1019,8 hPa 0,0 l/m 0 min 0 min 66 W/m 8,4 km/h (2 Bft) 95,74 %
05.05.2017 12:04 9,9 C 11,7 C 10,6 C 92 % 0 lf 1019,7 hPa 0,0 l/m 0 min 0 min 63 W/m 8,4 km/h (2 Bft) 91,30 %
05.05.2017 12:06 9,9 C 12,2 C 10,6 C 91 % 0 lf 1019,8 hPa 0,0 l/m 0 min 0 min 62 W/m 10,5 km/h (2 Bft) 95,74 %
05.05.2017 12:08 9,9 C 11,7 C 10,6 C 91 % 0 lf 1019,7 hPa 0,0 l/m 0 min 0 min 63 W/m 8,4 km/h (2 Bft) 97,87 %
05.05.2017 12:10 9,9 C 11,7 C 10,6 C 91 % 0 lf 1019,6 hPa 0,0 l/m 0 min 0 min 68 W/m 10,5 km/h (2 Bft) 97,87 %
05.05.2017 12:12 10,0 C 11,7 C 10,6 C 91 % 0 lf 1019,7 hPa 0,0 l/m 0 min 0 min 71 W/m 8,4 km/h (2 Bft) 95,74 %
05.05.2017 12:14 10,0 C 12,2 C 10,6 C 91 % 0 lf 1019,6 hPa 0,0 l/m 0 min 0 min 76 W/m 6,3 km/h (2 Bft) 97,87 %
05.05.2017 12:16 10,0 C 12,2 C 10,6 C 91 % 0 lf 1019,7 hPa 0,0 l/m 0 min 0 min 82 W/m 6,3 km/h (2 Bft) 95,65 %
05.05.2017 12:18 10,1 C 12,2 C 10,6 C 91 % 0 lf 1019,7 hPa 0,0 l/m 0 min 0 min 90 W/m 12,6 km/h (3 Bft) 97,87 %
05.05.2017 12:20 10,1 C 12,2 C 10,6 C 91 % 0 lf 1019,7 hPa 0,0 l/m 0 min 0 min 91 W/m 12,6 km/h (3 Bft) 97,87 %
05.05.2017 12:22 10,1 C 12,2 C 11,1 C 91 % 0 lf 1019,8 hPa 0,0 l/m 0 min 0 min 88 W/m 10,5 km/h (2 Bft) 95,74 %
05.05.2017 12:24 10,1 C 12,2 C 11,1 C 91 % 0 lf 1019,7 hPa 0,0 l/m 0 min 0 min 87 W/m 8,4 km/h (2 Bft) 95,74 %
05.05.2017 12:26 10,2 C 12,2 C 11,1 C 91 % 0 lf 1019,7 hPa 0,0 l/m 0 min 0 min 91 W/m 10,5 km/h (2 Bft) 97,87 %
05.05.2017 12:28 10,2 C 12,2 C 11,1 C 91 % 0 lf 1019,7 hPa 0,0 l/m 0 min 0 min 90 W/m 12,6 km/h (3 Bft) 97,83 %
05.05.2017 12:30 10,2 C 12,2 C 11,1 C 91 % 0 lf 1019,7 hPa 0,0 l/m 0 min 0 min 87 W/m 10,5 km/h (2 Bft) 95,74 %
05.05.2017 12:32 10,2 C 12,2 C 10,6 C 91 % 0 lf 1019,7 hPa 0,0 l/m 0 min 0 min 86 W/m 12,6 km/h (3 Bft) 97,87 %
05.05.2017 12:34 10,2 C 12,2 C 10,6 C 90 % 0 lf 1019,7 hPa 0,0 l/m 0 min 0 min 83 W/m 8,4 km/h (2 Bft) 97,87 %
05.05.2017 12:36 10,2 C 12,2 C 10,6 C 90 % 0 lf 1019,6 hPa 0,0 l/m 0 min 0 min 77 W/m 10,5 km/h (2 Bft) 95,74 %
05.05.2017 12:38 10,2 C 12,2 C 10,6 C 90 % 0 lf 1019,7 hPa 0,0 l/m 0 min 0 min 78 W/m 14,6 km/h (3 Bft) 95,35 %
05.05.2017 12:40 10,2 C 11,7 C 10,6 C 90 % 0 lf 1019,6 hPa 0,0 l/m 0 min 0 min 81 W/m 12,6 km/h (3 Bft) 98,00 %
05.05.2017 12:42 10,2 C 12,2 C 10,6 C 90 % 0 lf 1019,6 hPa 0,0 l/m 0 min 0 min 85 W/m 10,5 km/h (2 Bft) 95,74 %
05.05.2017 12:44 10,3 C 11,7 C 10,6 C 90 % 0 lf 1019,6 hPa 0,0 l/m 0 min 0 min 86 W/m 10,5 km/h (2 Bft) 97,87 %
05.05.2017 12:46 10,3 C 12,2 C 10,6 C 89 % 0 lf 1019,6 hPa 0,0 l/m 0 min 0 min 87 W/m 10,5 km/h (2 Bft) 97,87 %
05.05.2017 12:48 10,3 C 12,2 C 11,1 C 89 % 0 lf 1019,7 hPa 0,0 l/m 0 min 0 min 91 W/m 10,5 km/h (2 Bft) 95,74 %
05.05.2017 12:50 10,3 C 12,2 C 11,1 C 89 % 0 lf 1019,6 hPa 0,0 l/m 0 min 0 min 92 W/m 8,4 km/h (2 Bft) 100,00 %
05.05.2017 12:52 10,3 C 12,2 C 10,6 C 89 % 0 lf 1019,7 hPa 0,0 l/m 0 min 0 min 88 W/m 12,6 km/h (3 Bft) 100,00 %
05.05.2017 12:54 10,3 C 12,2 C 11,1 C 89 % 0 lf 1019,6 hPa 0,0 l/m 0 min 0 min 81 W/m 8,4 km/h (2 Bft) 100,00 %
05.05.2017 12:56 10,3 C 12,2 C 10,6 C 89 % 0 lf 1019,6 hPa 0,0 l/m 0 min 0 min 76 W/m 8,4 km/h (2 Bft) 95,74 %
05.05.2017 12:58 10,3 C 12,2 C 10,6 C 89 % 0 lf 1019,6 hPa 0,0 l/m 0 min 0 min 74 W/m 10,5 km/h (2 Bft) 100,00 %
05.05.2017 13:00 10,3 C 11,7 C 10,6 C 89 % 0 lf 1019,5 hPa 0,0 l/m 0 min 0 min 74 W/m 12,6 km/h (3 Bft) 100,00 %
05.05.2017 13:02 10,3 C 11,7 C 10,6 C 89 % 0 lf 1019,5 hPa 0,0 l/m 0 min 0 min 72 W/m 10,5 km/h (2 Bft) 97,83 %
05.05.2017 13:04 10,3 C 11,7 C 10,6 C 88 % 0 lf 1019,4 hPa 0,0 l/m 0 min 0 min 69 W/m 12,6 km/h (3 Bft) 100,00 %
05.05.2017 13:06 10,3 C 11,7 C 10,0 C 88 % 0 lf 1019,5 hPa 0,0 l/m 0 min 0 min 72 W/m 14,6 km/h (3 Bft) 100,00 %
05.05.2017 13:08 10,3 C 11,7 C 10,6 C 88 % 0 lf 1019,4 hPa 0,0 l/m 0 min 0 min 79 W/m 12,6 km/h (3 Bft) 95,74 %
05.05.2017 13:10 10,3 C 12,2 C 10,6 C 88 % 0 lf 1019,4 hPa 0,0 l/m 0 min 0 min 85 W/m 12,6 km/h (3 Bft) 97,87 %
05.05.2017 13:12 10,3 C 12,2 C 10,6 C 88 % 0 lf 1019,4 hPa 0,0 l/m 0 min 0 min 89 W/m 10,5 km/h (2 Bft) 95,74 %
05.05.2017 13:14 10,3 C 12,2 C 10,6 C 89 % 0 lf 1019,4 hPa 0,0 l/m 0 min 0 min 92 W/m 14,6 km/h (3 Bft) 95,65 %
05.05.2017 13:16 10,4 C 12,2 C 11,1 C 88 % 0 lf 1019,4 hPa 0,0 l/m 0 min 0 min 94 W/m 12,6 km/h (3 Bft) 95,74 %
05.05.2017 13:18 10,4 C 12,2 C 11,1 C 88 % 0 lf 1019,4 hPa 0,0 l/m 0 min 0 min 94 W/m 10,5 km/h (2 Bft) 95,74 %
05.05.2017 13:20 10,4 C 12,2 C 11,1 C 88 % 0 lf 1019,4 hPa 0,0 l/m 0 min 0 min 91 W/m 10,5 km/h (2 Bft) 97,87 %
05.05.2017 13:22 10,4 C 12,2 C 11,1 C 88 % 0 lf 1019,4 hPa 0,0 l/m 0 min 0 min 94 W/m 10,5 km/h (2 Bft) 95,74 %
05.05.2017 13:24 10,4 C 12,2 C 11,1 C 88 % 0 lf 1019,4 hPa 0,0 l/m 0 min 0 min 98 W/m 10,5 km/h (2 Bft) 95,74 %
05.05.2017 13:26 10,4 C 12,8 C 11,1 C 88 % 0 lf 1019,4 hPa 0,0 l/m 0 min 0 min 99 W/m 12,6 km/h (3 Bft) 95,65 %
05.05.2017 13:28 10,4 C 12,2 C 11,1 C 88 % 0 lf 1019,4 hPa 0,0 l/m 0 min 0 min 100 W/m 10,5 km/h (2 Bft) 95,74 %
05.05.2017 13:30 10,4 C 12,8 C 11,7 C 88 % 0 lf 1019,5 hPa 0,0 l/m 0 min 0 min 99 W/m 6,3 km/h (2 Bft) 93,62 %
05.05.2017 13:32 10,5 C 12,8 C 11,7 C 88 % 0 lf 1019,5 hPa 0,0 l/m 0 min 0 min 98 W/m 8,4 km/h (2 Bft) 95,74 %
05.05.2017 13:34 10,5 C 12,8 C 11,7 C 87 % 0 lf 1019,5 hPa 0,0 l/m 0 min 0 min 100 W/m 8,4 km/h (2 Bft) 95,74 %
05.05.2017 13:36 10,6 C 13,3 C 11,7 C 88 % 0 lf 1019,5 hPa 0,0 l/m 0 min 0 min 99 W/m 6,3 km/h (2 Bft) 95,74 %
05.05.2017 13:38 10,6 C 12,8 C 11,7 C 88 % 0 lf 1019,5 hPa 0,0 l/m 0 min 0 min 94 W/m 8,4 km/h (2 Bft) 95,65 %
05.05.2017 13:40 10,6 C 12,8 C 11,7 C 87 % 0 lf 1019,4 hPa 0,0 l/m 0 min 0 min 89 W/m 6,3 km/h (2 Bft) 95,74 %
05.05.2017 13:42 10,6 C 12,8 C 11,7 C 87 % 0 lf 1019,4 hPa 0,0 l/m 0 min 0 min 85 W/m 8,4 km/h (2 Bft) 93,62 %
05.05.2017 13:44 10,7 C 12,8 C 11,7 C 87 % 0 lf 1019,5 hPa 0,0 l/m 0 min 0 min 79 W/m 8,4 km/h (2 Bft) 91,49 %
05.05.2017 13:46 10,7 C 12,8 C 11,7 C 87 % 0 lf 1019,4 hPa 0,0 l/m 0 min 0 min 76 W/m 10,5 km/h (2 Bft) 95,74 %
05.05.2017 13:48 10,7 C 12,8 C 11,7 C 87 % 0 lf 1019,4 hPa 0,0 l/m 0 min 0 min 74 W/m 14,6 km/h (3 Bft) 95,74 %
05.05.2017 13:50 10,7 C 12,2 C 11,1 C 86 % 0 lf 1019,5 hPa 0,0 l/m 0 min 0 min 72 W/m 10,5 km/h (2 Bft) 93,48 %
05.05.2017 13:53 10,7 C 12,2 C 11,1 C 86 % 0 lf 1019,4 hPa 0,0 l/m 0 min 0 min 72 W/m 8,4 km/h (2 Bft) 94,37 %
05.05.2017 13:54 10,7 C 12,2 C 11,1 C 86 % 0 lf 1019,4 hPa 0,0 l/m 0 min 0 min 72 W/m 6,3 km/h (2 Bft) 95,65 %
05.05.2017 13:58 10,7 C 12,2 C 11,1 C 86 % 0 lf 1019,4 hPa 0,0 l/m 0 min 0 min 73 W/m 12,6 km/h (3 Bft) 95,74 %
05.05.2017 13:59 10,7 C 12,2 C 11,1 C 86 % 0 lf 1019,5 hPa 0,0 l/m 0 min 0 min 74 W/m 10,5 km/h (2 Bft) 91,30 %
05.05.2017 14:00 10,7 C 12,2 C 11,1 C 86 % 0 lf 1019,5 hPa 0,0 l/m 0 min 0 min 74 W/m 12,6 km/h (3 Bft) 97,37 %
05.05.2017 14:05 10,8 C 12,2 C 11,1 C 86 % 0 lf 1019,6 hPa 0,0 l/m 0 min 0 min 72 W/m 8,4 km/h (2 Bft) 96,49 %
05.05.2017 14:12 10,8 C 12,2 C 11,1 C 86 % 0 lf 1019,6 hPa 0,0 l/m 0 min 0 min 60 W/m 6,3 km/h (2 Bft) 100,00 %
05.05.2017 14:14 10,8 C 12,2 C 10,6 C 86 % 0 lf 1019,5 hPa 0,0 l/m 0 min 0 min 56 W/m 10,5 km/h (2 Bft) 93,48 %
05.05.2017 14:16 10,9 C 12,2 C 10,6 C 86 % 0 lf 1019,6 hPa 0,0 l/m 0 min 0 min 52 W/m 14,6 km/h (3 Bft) 95,74 %
05.05.2017 14:18 10,9 C 12,2 C 10,6 C 86 % 0 lf 1019,7 hPa 0,0 l/m 0 min 0 min 49 W/m 12,6 km/h (3 Bft) 95,74 %
05.05.2017 14:20 10,9 C 11,7 C 10,6 C 86 % 0 lf 1019,5 hPa 0,0 l/m 0 min 0 min 51 W/m 12,6 km/h (3 Bft) 97,87 %
05.05.2017 14:22 10,9 C 11,7 C 10,6 C 86 % 0 lf 1019,6 hPa 0,0 l/m 0 min 0 min 53 W/m 16,7 km/h (3 Bft) 97,87 %
05.05.2017 14:24 10,8 C 11,7 C 10,0 C 86 % 0 lf 1019,6 hPa 0,0 l/m 0 min 0 min 54 W/m 16,7 km/h (3 Bft) 95,65 %
05.05.2017 14:26 10,8 C 11,7 C 10,0 C 86 % 0 lf 1019,5 hPa 0,0 l/m 0 min 0 min 56 W/m 14,6 km/h (3 Bft) 95,74 %
05.05.2017 14:28 10,8 C 11,7 C 10,0 C 86 % 0 lf 1019,5 hPa 0,0 l/m 0 min 0 min 54 W/m 14,6 km/h (3 Bft) 97,87 %
05.05.2017 14:30 10,8 C 11,7 C 10,0 C 86 % 0 lf 1019,5 hPa 0,0 l/m 0 min 0 min 53 W/m 16,7 km/h (3 Bft) 97,87 %
05.05.2017 14:32 10,8 C 11,7 C 10,0 C 85 % 0 lf 1019,5 hPa 0,0 l/m 0 min 0 min 53 W/m 14,6 km/h (3 Bft) 93,62 %
05.05.2017 14:34 10,7 C 11,7 C 10,0 C 86 % 0 lf 1019,5 hPa 0,0 l/m 0 min 0 min 54 W/m 14,6 km/h (3 Bft) 97,87 %
05.05.2017 14:36 10,7 C 11,7 C 10,0 C 86 % 0 lf 1019,5 hPa 0,0 l/m 0 min 0 min 54 W/m 12,6 km/h (3 Bft) 97,83 %
05.05.2017 14:38 10,7 C 11,7 C 10,6 C 86 % 0 lf 1019,5 hPa 0,0 l/m 0 min 0 min 53 W/m 10,5 km/h (2 Bft) 95,74 %
05.05.2017 14:40 10,7 C 11,7 C 10,6 C 86 % 0 lf 1019,5 hPa 0,0 l/m 0 min 0 min 53 W/m 16,7 km/h (3 Bft) 95,74 %
05.05.2017 14:42 10,7 C 11,7 C 10,6 C 86 % 0 lf 1019,5 hPa 0,0 l/m 0 min 0 min 53 W/m 12,6 km/h (3 Bft) 97,87 %
05.05.2017 14:44 10,7 C 11,7 C 10,6 C 86 % 0 lf 1019,5 hPa 0,0 l/m 0 min 0 min 53 W/m 12,6 km/h (3 Bft) 97,87 %
05.05.2017 14:46 10,7 C 11,7 C 10,6 C 86 % 0 lf 1019,4 hPa 0,0 l/m 0 min 0 min 54 W/m 14,6 km/h (3 Bft) 95,74 %
05.05.2017 14:48 10,7 C 11,7 C 10,6 C 86 % 0 lf 1019,4 hPa 0,0 l/m 0 min 0 min 54 W/m 10,5 km/h (2 Bft) 97,83 %
05.05.2017 14:50 10,7 C 11,7 C 10,6 C 86 % 0 lf 1019,4 hPa 0,0 l/m 0 min 0 min 53 W/m 10,5 km/h (2 Bft) 97,87 %
05.05.2017 14:52 10,7 C 11,7 C 10,6 C 86 % 0 lf 1019,4 hPa 0,0 l/m 0 min 0 min 51 W/m 14,6 km/h (3 Bft) 100,00 %
05.05.2017 14:54 10,7 C 11,7 C 10,0 C 86 % 0 lf 1019,4 hPa 0,0 l/m 0 min 0 min 49 W/m 16,7 km/h (3 Bft) 95,74 %
05.05.2017 14:56 10,7 C 11,7 C 10,0 C 86 % 0 lf 1019,4 hPa 0,0 l/m 0 min 0 min 49 W/m 14,6 km/h (3 Bft) 97,87 %
05.05.2017 14:58 10,7 C 11,7 C 10,0 C 86 % 0 lf 1019,4 hPa 0,0 l/m 0 min 0 min 49 W/m 12,6 km/h (3 Bft) 97,87 %
05.05.2017 15:00 10,7 C 11,7 C 10,6 C 86 % 0 lf 1019,4 hPa 0,0 l/m 0 min 0 min 52 W/m 6,3 km/h (2 Bft) 97,83 %
05.05.2017 15:02 10,7 C 11,7 C 10,6 C 86 % 0 lf 1019,4 hPa 0,0 l/m 0 min 0 min 52 W/m 10,5 km/h (2 Bft) 97,87 %
05.05.2017 15:04 10,7 C 11,7 C 10,6 C 86 % 0 lf 1019,3 hPa 0,0 l/m 0 min 0 min 51 W/m 12,6 km/h (3 Bft) 97,87 %
05.05.2017 15:06 10,7 C 11,7 C 10,6 C 86 % 0 lf 1019,4 hPa 0,0 l/m 0 min 0 min 51 W/m 16,7 km/h (3 Bft) 93,62 %
05.05.2017 15:08 10,8 C 12,2 C 10,6 C 86 % 0 lf 1019,3 hPa 0,0 l/m 0 min 0 min 53 W/m 10,5 km/h (2 Bft) 97,87 %
05.05.2017 15:10 10,8 C 12,2 C 10,6 C 86 % 1 lf 1019,3 hPa 0,0 l/m 0 min 0 min 56 W/m 10,5 km/h (2 Bft) 97,87 %
05.05.2017 15:12 10,8 C 11,7 C 10,6 C 86 % 0 lf 1019,3 hPa 0,0 l/m 0 min 0 min 56 W/m 14,6 km/h (3 Bft) 95,65 %
05.05.2017 15:14 10,8 C 12,2 C 10,6 C 86 % 0 lf 1019,3 hPa 0,0 l/m 0 min 0 min 59 W/m 14,6 km/h (3 Bft) 97,87 %
05.05.2017 15:16 10,8 C 12,2 C 10,6 C 86 % 0 lf 1019,3 hPa 0,0 l/m 0 min 0 min 63 W/m 10,5 km/h (2 Bft) 97,87 %
05.05.2017 15:18 10,8 C 12,2 C 10,6 C 86 % 0 lf 1019,3 hPa 0,0 l/m 0 min 0 min 68 W/m 14,6 km/h (3 Bft) 95,74 %
05.05.2017 15:20 10,8 C 12,2 C 10,6 C 86 % 0 lf 1019,3 hPa 0,0 l/m 0 min 0 min 73 W/m 8,4 km/h (2 Bft) 95,74 %
05.05.2017 15:22 10,8 C 12,8 C 11,1 C 86 % 0 lf 1019,3 hPa 0,0 l/m 0 min 0 min 82 W/m 6,3 km/h (2 Bft) 95,74 %
05.05.2017 15:24 10,8 C 12,8 C 11,7 C 86 % 0 lf 1019,3 hPa 0,0 l/m 0 min 0 min 91 W/m 8,4 km/h (2 Bft) 95,65 %
05.05.2017 15:26 10,8 C 13,3 C 11,7 C 86 % 0 lf 1019,2 hPa 0,0 l/m 0 min 0 min 99 W/m 6,3 km/h (2 Bft) 97,87 %
05.05.2017 15:28 10,9 C 13,3 C 11,7 C 86 % 0 lf 1019,3 hPa 0,0 l/m 0 min 0 min 102 W/m 6,3 km/h (2 Bft) 97,87 %
05.05.2017 15:30 10,9 C 13,9 C 12,2 C 86 % 0 lf 1019,3 hPa 0,0 l/m 0 min 0 min 106 W/m 8,4 km/h (2 Bft) 97,87 %
05.05.2017 15:32 10,9 C 13,9 C 12,2 C 86 % 0 lf 1019,2 hPa 0,0 l/m 0 min 0 min 112 W/m 10,5 km/h (2 Bft) 93,62 %
05.05.2017 15:34 10,9 C 13,9 C 12,2 C 86 % 0 lf 1019,2 hPa 0,0 l/m 0 min 0 min 114 W/m 10,5 km/h (2 Bft) 95,74 %
05.05.2017 15:36 11,0 C 13,3 C 12,2 C 86 % 0 lf 1019,2 hPa 0,0 l/m 0 min 0 min 116 W/m 10,5 km/h (2 Bft) 95,65 %
05.05.2017 15:38 11,0 C 13,3 C 12,2 C 86 % 0 lf 1019,2 hPa 0,0 l/m 0 min 0 min 121 W/m 12,6 km/h (3 Bft) 97,87 %
05.05.2017 15:40 11,1 C 13,9 C 12,2 C 85 % 0 lf 1019,2 hPa 0,0 l/m 0 min 0 min 129 W/m 8,4 km/h (2 Bft) 95,74 %
05.05.2017 15:42 11,1 C 13,9 C 12,8 C 85 % 0 lf 1019,1 hPa 0,0 l/m 0 min 0 min 138 W/m 10,5 km/h (2 Bft) 97,87 %
05.05.2017 15:44 11,1 C 13,9 C 12,2 C 85 % 0 lf 1019,1 hPa 0,0 l/m 0 min 0 min 147 W/m 12,6 km/h (3 Bft) 97,87 %
05.05.2017 15:46 11,1 C 14,4 C 12,8 C 84 % 0 lf 1019,0 hPa 0,0 l/m 0 min 0 min 153 W/m 10,5 km/h (2 Bft) 97,83 %
05.05.2017 15:48 11,2 C 15,0 C 13,3 C 84 % 0 lf 1019,0 hPa 0,0 l/m 0 min 0 min 164 W/m 14,6 km/h (3 Bft) 97,87 %
05.05.2017 15:50 11,3 C 15,0 C 13,3 C 84 % 0 lf 1019,0 hPa 0,0 l/m 0 min 0 min 182 W/m 12,6 km/h (3 Bft) 95,74 %
05.05.2017 15:52 11,3 C 15,0 C 13,3 C 84 % 0 lf 1018,9 hPa 0,0 l/m 0 min 0 min 185 W/m 8,4 km/h (2 Bft) 97,87 %
05.05.2017 15:54 11,4 C 15,0 C 13,3 C 84 % 0 lf 1018,9 hPa 0,0 l/m 0 min 0 min 174 W/m 8,4 km/h (2 Bft) 97,87 %
05.05.2017 15:56 11,4 C 15,0 C 13,3 C 84 % 0 lf 1018,9 hPa 0,0 l/m 0 min 0 min 169 W/m 8,4 km/h (2 Bft) 97,87 %
05.05.2017 15:58 11,4 C 15,6 C 13,3 C 83 % 0 lf 1018,9 hPa 0,0 l/m 0 min 0 min 168 W/m 6,3 km/h (2 Bft) 97,83 %
05.05.2017 16:00 11,5 C 15,6 C 13,9 C 83 % 0 lf 1018,9 hPa 0,0 l/m 0 min 0 min 165 W/m 8,4 km/h (2 Bft) 95,74 %
05.05.2017 16:02 11,6 C 15,6 C 13,9 C 83 % 0 lf 1018,9 hPa 0,0 l/m 0 min 0 min 163 W/m 12,6 km/h (3 Bft) 93,62 %
05.05.2017 16:04 11,6 C 15,6 C 13,9 C 83 % 0 lf 1018,9 hPa 0,0 l/m 0 min 0 min 164 W/m 12,6 km/h (3 Bft) 97,87 %
05.05.2017 16:06 11,7 C 15,0 C 13,3 C 83 % 0 lf 1018,8 hPa 0,0 l/m 0 min 0 min 167 W/m 10,5 km/h (2 Bft) 100,00 %
05.05.2017 16:08 11,7 C 15,0 C 13,3 C 82 % 0 lf 1018,8 hPa 0,0 l/m 0 min 0 min 176 W/m 8,4 km/h (2 Bft) 95,74 %
05.05.2017 16:10 11,7 C 15,6 C 13,9 C 82 % 0 lf 1018,7 hPa 0,0 l/m 0 min 0 min 188 W/m 4,2 km/h (1 Bft) 100,00 %
05.05.2017 16:12 11,8 C 16,1 C 15,0 C 82 % 0 lf 1018,7 hPa 0,0 l/m 0 min 0 min 186 W/m 12,6 km/h (3 Bft) 100,00 %
05.05.2017 16:14 11,8 C 16,7 C 14,4 C 83 % 0 lf 1018,7 hPa 0,0 l/m 0 min 0 min 179 W/m 18,8 km/h (3 Bft) 100,00 %
05.05.2017 16:16 11,9 C 16,1 C 15,0 C 83 % 0 lf 1018,7 hPa 0,0 l/m 0 min 0 min 176 W/m 8,4 km/h (2 Bft) 100,00 %
05.05.2017 16:18 12,0 C 16,1 C 14,4 C 83 % 0 lf 1018,7 hPa 0,0 l/m 0 min 0 min 173 W/m 12,6 km/h (3 Bft) 100,00 %
05.05.2017 16:20 12,1 C 16,1 C 14,4 C 82 % 0 lf 1018,7 hPa 0,0 l/m 0 min 0 min 164 W/m 12,6 km/h (3 Bft) 97,87 %
05.05.2017 16:22 12,2 C 16,1 C 14,4 C 82 % 0 lf 1018,6 hPa 0,0 l/m 0 min 0 min 162 W/m 14,6 km/h (3 Bft) 97,83 %
05.05.2017 16:24 12,2 C 16,1 C 15,0 C 82 % 0 lf 1018,6 hPa 0,0 l/m 0 min 0 min 167 W/m 10,5 km/h (2 Bft) 97,87 %
05.05.2017 16:26 12,3 C 16,1 C 15,0 C 82 % 0 lf 1018,6 hPa 0,0 l/m 0 min 0 min 171 W/m 6,3 km/h (2 Bft) 100,00 %
05.05.2017 16:28 12,4 C 15,0 C 15,0 C 81 % 0 lf 1018,6 hPa 0,0 l/m 0 min 0 min 163 W/m 10,5 km/h (2 Bft) 100,00 %
05.05.2017 16:30 12,4 C 15,6 C 15,0 C 81 % 0 lf 1018,6 hPa 0,0 l/m 0 min 0 min 151 W/m 6,3 km/h (2 Bft) 100,00 %
05.05.2017 16:32 12,4 C 15,6 C 15,0 C 81 % 0 lf 1018,6 hPa 0,0 l/m 0 min 0 min 143 W/m 14,6 km/h (3 Bft) 100,00 %
05.05.2017 16:34 12,5 C 15,6 C 14,4 C 81 % 0 lf 1018,6 hPa 0,0 l/m 0 min 0 min 138 W/m 16,7 km/h (3 Bft) 97,83 %
05.05.2017 16:36 12,6 C 15,0 C 13,9 C 80 % 0 lf 1018,6 hPa 0,0 l/m 0 min 0 min 132 W/m 12,6 km/h (3 Bft) 97,87 %
05.05.2017 16:38 12,6 C 15,0 C 13,9 C 80 % 0 lf 1018,6 hPa 0,0 l/m 0 min 0 min 130 W/m 12,6 km/h (3 Bft) 97,87 %
05.05.2017 16:40 12,6 C 15,0 C 13,9 C 80 % 0 lf 1018,6 hPa 0,0 l/m 0 min 0 min 136 W/m 14,6 km/h (3 Bft) 97,87 %
05.05.2017 16:42 12,6 C 15,6 C 13,9 C 79 % 0 lf 1018,6 hPa 0,0 l/m 0 min 0 min 148 W/m 10,5 km/h (2 Bft) 97,87 %
05.05.2017 16:44 12,6 C 15,6 C 14,4 C 79 % 0 lf 1018,5 hPa 0,0 l/m 0 min 0 min 156 W/m 6,3 km/h (2 Bft) 95,74 %
05.05.2017 16:46 12,7 C 15,6 C 14,4 C 80 % 0 lf 1018,5 hPa 0,0 l/m 0 min 0 min 157 W/m 12,6 km/h (3 Bft) 91,30 %
05.05.2017 16:48 12,7 C 15,6 C 14,4 C 79 % 0 lf 1018,5 hPa 0,0 l/m 0 min 0 min 159 W/m 10,5 km/h (2 Bft) 97,87 %
05.05.2017 16:50 12,7 C 16,1 C 14,4 C 80 % 0 lf 1018,4 hPa 0,0 l/m 0 min 0 min 159 W/m 10,5 km/h (2 Bft) 97,87 %
05.05.2017 16:52 12,7 C 15,6 C 14,4 C 80 % 0 lf 1018,4 hPa 0,0 l/m 0 min 0 min 154 W/m 10,5 km/h (2 Bft) 97,87 %
05.05.2017 16:54 12,7 C 15,6 C 13,9 C 80 % 0 lf 1018,4 hPa 0,0 l/m 0 min 0 min 145 W/m 12,6 km/h (3 Bft) 95,74 %
05.05.2017 16:56 12,7 C 15,6 C 13,9 C 79 % 0 lf 1018,3 hPa 0,0 l/m 0 min 0 min 137 W/m 8,4 km/h (2 Bft) 91,49 %
05.05.2017 16:58 12,7 C 15,0 C 13,9 C 79 % 0 lf 1018,3 hPa 0,0 l/m 0 min 0 min 127 W/m 10,5 km/h (2 Bft) 97,83 %
05.05.2017 17:00 12,7 C 15,0 C 13,9 C 79 % 0 lf 1018,3 hPa 0,0 l/m 0 min 0 min 114 W/m 12,6 km/h (3 Bft) 95,74 %
05.05.2017 17:02 12,7 C 14,4 C 13,9 C 79 % 0 lf 1018,3 hPa 0,0 l/m 0 min 0 min 101 W/m 14,6 km/h (3 Bft) 97,87 %
05.05.2017 17:04 12,7 C 14,4 C 13,9 C 79 % 0 lf 1018,3 hPa 0,0 l/m 0 min 0 min 95 W/m 14,6 km/h (3 Bft) 95,74 %
05.05.2017 17:06 12,7 C 14,4 C 13,3 C 79 % 0 lf 1018,3 hPa 0,0 l/m 0 min 0 min 96 W/m 10,5 km/h (2 Bft) 95,74 %
05.05.2017 17:08 12,7 C 13,9 C 12,8 C 79 % 0 lf 1018,3 hPa 0,0 l/m 0 min 0 min 94 W/m 12,6 km/h (3 Bft) 97,87 %
05.05.2017 17:10 12,7 C 14,4 C 12,8 C 79 % 0 lf 1018,3 hPa 0,0 l/m 0 min 0 min 93 W/m 10,5 km/h (2 Bft) 95,65 %
05.05.2017 17:12 12,7 C 14,4 C 13,3 C 79 % 0 lf 1018,3 hPa 0,0 l/m 0 min 0 min 96 W/m 8,4 km/h (2 Bft) 95,74 %
05.05.2017 17:14 12,7 C 14,4 C 13,3 C 79 % 0 lf 1018,2 hPa 0,0 l/m 0 min 0 min 98 W/m 14,6 km/h (3 Bft) 95,74 %
05.05.2017 17:16 12,7 C 14,4 C 13,3 C 79 % 0 lf 1018,2 hPa 0,0 l/m 0 min 0 min 98 W/m 12,6 km/h (3 Bft) 95,74 %
05.05.2017 17:18 12,7 C 15,0 C 13,3 C 79 % 0 lf 1018,2 hPa 0,0 l/m 0 min 0 min 96 W/m 10,5 km/h (2 Bft) 95,74 %
05.05.2017 17:20 12,7 C 14,4 C 13,3 C 79 % 0 lf 1018,2 hPa 0,0 l/m 0 min 0 min 91 W/m 14,6 km/h (3 Bft) 95,65 %
05.05.2017 17:22 12,8 C 14,4 C 13,3 C 79 % 0 lf 1018,2 hPa 0,0 l/m 0 min 0 min 90 W/m 10,5 km/h (2 Bft) 93,62 %
05.05.2017 17:24 12,8 C 14,4 C 13,3 C 80 % 0 lf 1018,2 hPa 0,0 l/m 0 min 0 min 90 W/m 6,3 km/h (2 Bft) 89,36 %
05.05.2017 17:26 12,8 C 14,4 C 13,3 C 79 % 0 lf 1018,3 hPa 0,0 l/m 0 min 0 min 93 W/m 16,7 km/h (3 Bft) 95,74 %
05.05.2017 17:28 12,8 C 13,9 C 13,9 C 79 % 0 lf 1018,2 hPa 0,0 l/m 0 min 0 min 97 W/m 14,6 km/h (3 Bft) 93,62 %
05.05.2017 17:30 12,8 C 13,9 C 13,9 C 78 % 0 lf 1018,2 hPa 0,0 l/m 0 min 0 min 97 W/m 14,6 km/h (3 Bft) 93,62 %
05.05.2017 17:32 12,8 C 14,4 C 13,9 C 79 % 0 lf 1018,1 hPa 0,0 l/m 0 min 0 min 94 W/m 10,5 km/h (2 Bft) 91,30 %
05.05.2017 17:34 12,8 C 14,4 C 13,3 C 78 % 0 lf 1018,1 hPa 0,0 l/m 0 min 0 min 89 W/m 12,6 km/h (3 Bft) 95,74 %
05.05.2017 17:36 12,8 C 14,4 C 13,3 C 79 % 0 lf 1018,0 hPa 0,0 l/m 0 min 0 min 83 W/m 14,6 km/h (3 Bft) 93,62 %
05.05.2017 17:38 12,8 C 14,4 C 12,8 C 78 % 0 lf 1018,0 hPa 0,0 l/m 0 min 0 min 82 W/m 10,5 km/h (2 Bft) 91,49 %
05.05.2017 17:40 12,8 C 14,4 C 12,8 C 78 % 0 lf 1018,1 hPa 0,0 l/m 0 min 0 min 83 W/m 14,6 km/h (3 Bft) 95,74 %
05.05.2017 17:42 12,8 C 14,4 C 12,8 C 78 % 0 lf 1018,1 hPa 0,0 l/m 0 min 0 min 79 W/m 16,7 km/h (3 Bft) 89,36 %
05.05.2017 17:44 12,8 C 14,4 C 12,8 C 78 % 0 lf 1018,1 hPa 0,0 l/m 0 min 0 min 74 W/m 14,6 km/h (3 Bft) 92,73 %
05.05.2017 17:46 12,8 C 13,9 C 12,8 C 78 % 0 lf 1018,0 hPa 0,0 l/m 0 min 0 min 70 W/m 10,5 km/h (2 Bft) 91,43 %
05.05.2017 17:48 12,8 C 13,9 C 12,2 C 78 % 0 lf 1018,0 hPa 0,0 l/m 0 min 0 min 67 W/m 10,5 km/h (2 Bft) 93,62 %
05.05.2017 17:50 12,8 C 13,9 C 12,2 C 78 % 0 lf 1018,0 hPa 0,0 l/m 0 min 0 min 69 W/m 14,6 km/h (3 Bft) 93,10 %
05.05.2017 17:52 12,8 C 13,9 C 12,2 C 78 % 0 lf 1018,0 hPa 0,0 l/m 0 min 0 min 73 W/m 16,7 km/h (3 Bft) 91,67 %
05.05.2017 17:54 12,7 C 13,9 C 12,2 C 78 % 0 lf 1018,0 hPa 0,0 l/m 0 min 0 min 76 W/m 14,6 km/h (3 Bft) 93,48 %
05.05.2017 17:56 12,7 C 13,9 C 12,2 C 77 % 0 lf 1018,0 hPa 0,0 l/m 0 min 0 min 74 W/m 14,6 km/h (3 Bft) 97,87 %
05.05.2017 17:58 12,7 C 13,3 C 12,2 C 77 % 0 lf 1018,0 hPa 0,0 l/m 0 min 0 min 70 W/m 10,5 km/h (2 Bft) 91,49 %
05.05.2017 18:00 12,7 C 13,9 C 12,8 C 78 % 0 lf 1018,0 hPa 0,0 l/m 0 min 0 min 68 W/m 10,5 km/h (2 Bft) 93,62 %
05.05.2017 18:02 12,7 C 13,3 C 12,8 C 78 % 0 lf 1018,0 hPa 0,0 l/m 0 min 0 min 68 W/m 10,5 km/h (2 Bft) 91,49 %
05.05.2017 18:04 12,7 C 13,9 C 12,8 C 78 % 0 lf 1017,9 hPa 0,0 l/m 0 min 0 min 69 W/m 14,6 km/h (3 Bft) 97,87 %
05.05.2017 18:06 12,7 C 13,9 C 12,8 C 79 % 0 lf 1017,9 hPa 0,0 l/m 0 min 0 min 71 W/m 10,5 km/h (2 Bft) 93,10 %
05.05.2017 18:08 12,7 C 13,9 C 12,8 C 79 % 0 lf 1017,9 hPa 0,0 l/m 0 min 0 min 74 W/m 10,5 km/h (2 Bft) 97,22 %
05.05.2017 18:10 12,7 C 13,9 C 12,8 C 79 % 0 lf 1017,9 hPa 0,0 l/m 0 min 0 min 76 W/m 14,6 km/h (3 Bft) 95,74 %
05.05.2017 18:12 12,7 C 13,9 C 12,8 C 79 % 0 lf 1017,9 hPa 0,0 l/m 0 min 0 min 76 W/m 8,4 km/h (2 Bft) 97,87 %
05.05.2017 18:14 12,7 C 13,9 C 12,8 C 79 % 0 lf 1017,9 hPa 0,0 l/m 0 min 0 min 74 W/m 12,6 km/h (3 Bft) 97,87 %
05.05.2017 18:16 12,7 C 13,9 C 12,8 C 79 % 0 lf 1017,9 hPa 0,0 l/m 0 min 0 min 72 W/m 16,7 km/h (3 Bft) 97,83 %
05.05.2017 18:18 12,7 C 13,9 C 12,8 C 79 % 0 lf 1017,9 hPa 0,0 l/m 0 min 0 min 71 W/m 10,5 km/h (2 Bft) 100,00 %
05.05.2017 18:20 12,7 C 13,9 C 12,8 C 79 % 0 lf 1017,9 hPa 0,0 l/m 0 min 0 min 68 W/m 10,5 km/h (2 Bft) 100,00 %
05.05.2017 18:22 12,7 C 13,9 C 12,8 C 79 % 0 lf 1017,8 hPa 0,0 l/m 0 min 0 min 66 W/m 12,6 km/h (3 Bft) 100,00 %
05.05.2017 18:24 12,7 C 13,9 C 12,8 C 79 % 0 lf 1017,8 hPa 0,0 l/m 0 min 0 min 65 W/m 16,7 km/h (3 Bft) 95,74 %
05.05.2017 18:26 12,7 C 13,9 C 12,8 C 79 % 0 lf 1017,8 hPa 0,0 l/m 0 min 0 min 63 W/m 12,6 km/h (3 Bft) 100,00 %
05.05.2017 18:28 12,7 C 13,9 C 12,2 C 79 % 0 lf 1017,8 hPa 0,0 l/m 0 min 0 min 63 W/m 10,5 km/h (2 Bft) 100,00 %
05.05.2017 18:30 12,7 C 13,3 C 12,8 C 79 % 0 lf 1017,8 hPa 0,0 l/m 0 min 0 min 62 W/m 14,6 km/h (3 Bft) 100,00 %
05.05.2017 18:32 12,7 C 13,3 C 12,2 C 79 % 0 lf 1017,8 hPa 0,0 l/m 0 min 0 min 62 W/m 12,6 km/h (3 Bft) 100,00 %
05.05.2017 18:34 12,7 C 13,3 C 12,2 C 79 % 0 lf 1017,8 hPa 0,0 l/m 0 min 0 min 60 W/m 12,6 km/h (3 Bft) 97,92 %
05.05.2017 18:36 12,6 C 13,3 C 12,2 C 79 % 0 lf 1017,8 hPa 0,0 l/m 0 min 0 min 58 W/m 10,5 km/h (2 Bft) 100,00 %
05.05.2017 18:38 12,6 C 13,3 C 12,2 C 79 % 0 lf 1017,8 hPa 0,0 l/m 0 min 0 min 55 W/m 12,6 km/h (3 Bft) 100,00 %
05.05.2017 18:40 12,6 C 13,3 C 12,2 C 79 % 0 lf 1017,8 hPa 0,0 l/m 0 min 0 min 56 W/m 14,6 km/h (3 Bft) 100,00 %
05.05.2017 18:42 12,6 C 13,3 C 12,2 C 79 % 0 lf 1017,8 hPa 0,0 l/m 0 min 0 min 54 W/m 6,3 km/h (2 Bft) 97,87 %
05.05.2017 18:44 12,6 C 13,9 C 12,2 C 79 % 0 lf 1017,8 hPa 0,0 l/m 0 min 0 min 53 W/m 10,5 km/h (2 Bft) 100,00 %
05.05.2017 18:46 12,6 C 13,3 C 12,2 C 79 % 0 lf 1017,7 hPa 0,0 l/m 0 min 0 min 53 W/m 10,5 km/h (2 Bft) 97,87 %
05.05.2017 18:48 12,6 C 13,3 C 12,2 C 79 % 0 lf 1017,8 hPa 0,0 l/m 0 min 0 min 52 W/m 12,6 km/h (3 Bft) 100,00 %
05.05.2017 18:50 12,6 C 13,3 C 12,2 C 79 % 0 lf 1017,7 hPa 0,0 l/m 0 min 0 min 51 W/m 18,8 km/h (3 Bft) 100,00 %
05.05.2017 18:52 12,6 C 13,3 C 12,2 C 79 % 0 lf 1017,7 hPa 0,0 l/m 0 min 0 min 51 W/m 12,6 km/h (3 Bft) 100,00 %
05.05.2017 18:54 12,6 C 13,3 C 11,7 C 79 % 0 lf 1017,7 hPa 0,0 l/m 0 min 0 min 51 W/m 14,6 km/h (3 Bft) 100,00 %
05.05.2017 18:56 12,6 C 12,8 C 11,7 C 80 % 0 lf 1017,6 hPa 0,0 l/m 0 min 0 min 49 W/m 14,6 km/h (3 Bft) 100,00 %
05.05.2017 18:58 12,5 C 12,8 C 11,7 C 80 % 0 lf 1017,6 hPa 0,0 l/m 0 min 0 min 47 W/m 14,6 km/h (3 Bft) 100,00 %
05.05.2017 19:00 12,4 C 12,8 C 11,7 C 80 % 0 lf 1017,6 hPa 0,0 l/m 0 min 0 min 47 W/m 20,9 km/h (4 Bft) 97,87 %
05.05.2017 19:02 12,4 C 12,8 C 11,1 C 80 % 0 lf 1017,6 hPa 0,0 l/m 0 min 0 min 44 W/m 16,7 km/h (3 Bft) 100,00 %
05.05.2017 19:04 12,3 C 12,8 C 11,1 C 80 % 0 lf 1017,6 hPa 0,0 l/m 0 min 0 min 42 W/m 16,7 km/h (3 Bft) 100,00 %
05.05.2017 19:06 12,3 C 12,8 C 11,1 C 81 % 0 lf 1017,6 hPa 0,0 l/m 0 min 0 min 40 W/m 14,6 km/h (3 Bft) 100,00 %
05.05.2017 19:08 12,2 C 12,8 C 11,1 C 81 % 0 lf 1017,6 hPa 0,0 l/m 0 min 0 min 40 W/m 12,6 km/h (3 Bft) 100,00 %
05.05.2017 19:10 12,2 C 12,8 C 11,1 C 81 % 0 lf 1017,6 hPa 0,0 l/m 0 min 0 min 39 W/m 10,5 km/h (2 Bft) 97,87 %
05.05.2017 19:12 12,2 C 12,8 C 11,1 C 81 % 0 lf 1017,6 hPa 0,0 l/m 0 min 0 min 36 W/m 8,4 km/h (2 Bft) 97,87 %
05.05.2017 19:14 12,2 C 12,8 C 11,1 C 82 % 0 lf 1017,6 hPa 0,0 l/m 0 min 0 min 35 W/m 10,5 km/h (2 Bft) 100,00 %
05.05.2017 19:16 12,1 C 12,8 C 11,1 C 82 % 0 lf 1017,5 hPa 0,0 l/m 0 min 0 min 35 W/m 14,6 km/h (3 Bft) 100,00 %
05.05.2017 19:18 12,1 C 12,8 C 11,1 C 82 % 0 lf 1017,6 hPa 0,0 l/m 0 min 0 min 36 W/m 8,4 km/h (2 Bft) 100,00 %
05.05.2017 19:20 12,1 C 12,8 C 11,1 C 82 % 0 lf 1017,6 hPa 0,0 l/m 0 min 0 min 36 W/m 10,5 km/h (2 Bft) 100,00 %
05.05.2017 19:22 12,1 C 12,8 C 11,1 C 82 % 0 lf 1017,6 hPa 0,0 l/m 0 min 0 min 35 W/m 10,5 km/h (2 Bft) 97,87 %
05.05.2017 19:24 12,1 C 12,8 C 11,1 C 82 % 0 lf 1017,6 hPa 0,0 l/m 0 min 0 min 36 W/m 10,5 km/h (2 Bft) 100,00 %
05.05.2017 19:26 12,1 C 12,8 C 11,7 C 82 % 0 lf 1017,6 hPa 0,0 l/m 0 min 0 min 38 W/m 8,4 km/h (2 Bft) 93,48 %
05.05.2017 19:28 12,1 C 12,8 C 11,1 C 82 % 0 lf 1017,5 hPa 0,0 l/m 0 min 0 min 39 W/m 10,5 km/h (2 Bft) 97,87 %
05.05.2017 19:30 12,1 C 12,8 C 11,1 C 82 % 0 lf 1017,5 hPa 0,0 l/m 0 min 0 min 39 W/m 18,8 km/h (3 Bft) 97,87 %
05.05.2017 19:32 12,0 C 12,8 C 11,7 C 82 % 0 lf 1017,5 hPa 0,0 l/m 0 min 0 min 39 W/m 16,7 km/h (3 Bft) 97,87 %
05.05.2017 19:34 12,0 C 12,8 C 11,1 C 82 % 0 lf 1017,5 hPa 0,0 l/m 0 min 0 min 38 W/m 14,6 km/h (3 Bft) 100,00 %
05.05.2017 19:36 12,0 C 12,8 C 11,1 C 81 % 0 lf 1017,5 hPa 0,0 l/m 0 min 0 min 37 W/m 16,7 km/h (3 Bft) 97,87 %
05.05.2017 19:38 12,0 C 12,8 C 11,1 C 81 % 0 lf 1017,4 hPa 0,0 l/m 0 min 0 min 37 W/m 10,5 km/h (2 Bft) 97,87 %
05.05.2017 19:40 12,0 C 12,8 C 11,1 C 81 % 0 lf 1017,5 hPa 0,0 l/m 0 min 0 min 35 W/m 12,6 km/h (3 Bft) 97,83 %
05.05.2017 19:42 12,0 C 12,8 C 11,1 C 81 % 0 lf 1017,5 hPa 0,0 l/m 0 min 0 min 35 W/m 12,6 km/h (3 Bft) 100,00 %
05.05.2017 19:44 12,0 C 12,8 C 11,1 C 81 % 0 lf 1017,4 hPa 0,0 l/m 0 min 0 min 35 W/m 16,7 km/h (3 Bft) 95,74 %
05.05.2017 19:46 11,9 C 12,8 C 11,1 C 81 % 0 lf 1017,4 hPa 0,0 l/m 0 min 0 min 35 W/m 18,8 km/h (3 Bft) 97,87 %
05.05.2017 19:48 11,9 C 12,8 C 11,1 C 81 % 0 lf 1017,5 hPa 0,0 l/m 0 min 0 min 38 W/m 16,7 km/h (3 Bft) 95,74 %
05.05.2017 19:50 11,9 C 12,2 C 11,1 C 81 % 0 lf 1017,5 hPa 0,0 l/m 0 min 0 min 44 W/m 16,7 km/h (3 Bft) 95,65 %
05.05.2017 19:52 11,9 C 12,8 C 11,1 C 81 % 0 lf 1017,5 hPa 0,0 l/m 0 min 0 min 51 W/m 14,6 km/h (3 Bft) 97,87 %
05.05.2017 19:54 11,9 C 12,8 C 11,1 C 81 % 0 lf 1017,4 hPa 0,0 l/m 0 min 0 min 49 W/m 14,6 km/h (3 Bft) 97,87 %
05.05.2017 19:56 11,9 C 12,8 C 11,1 C 81 % 0 lf 1017,4 hPa 0,0 l/m 0 min 0 min 54 W/m 14,6 km/h (3 Bft) 97,87 %
05.05.2017 19:58 11,9 C 12,2 C 11,1 C 81 % 0 lf 1017,4 hPa 0,0 l/m 0 min 0 min 55 W/m 18,8 km/h (3 Bft) 100,00 %
05.05.2017 20:00 11,9 C 12,2 C 11,1 C 81 % 0 lf 1017,3 hPa 0,0 l/m 0 min 0 min 54 W/m 14,6 km/h (3 Bft) 97,87 %
05.05.2017 20:02 11,9 C 12,2 C 11,1 C 81 % 0 lf 1017,4 hPa 0,0 l/m 0 min 0 min 53 W/m 20,9 km/h (4 Bft) 95,65 %
05.05.2017 20:04 11,9 C 12,2 C 11,1 C 81 % 0 lf 1017,2 hPa 0,0 l/m 0 min 0 min 51 W/m 16,7 km/h (3 Bft) 97,87 %
05.05.2017 20:06 11,9 C 12,2 C 11,1 C 81 % 0 lf 1017,2 hPa 0,0 l/m 0 min 0 min 47 W/m 14,6 km/h (3 Bft) 97,87 %
05.05.2017 20:08 11,9 C 12,2 C 11,1 C 81 % 0 lf 1017,1 hPa 0,0 l/m 0 min 0 min 41 W/m 16,7 km/h (3 Bft) 97,87 %
05.05.2017 20:10 11,9 C 12,2 C 10,6 C 81 % 0 lf 1017,1 hPa 0,0 l/m 0 min 0 min 37 W/m 16,7 km/h (3 Bft) 95,74 %
05.05.2017 20:12 11,9 C 11,7 C 10,6 C 81 % 0 lf 1017,1 hPa 0,0 l/m 0 min 0 min 33 W/m 14,6 km/h (3 Bft) 95,74 %
05.05.2017 20:14 11,8 C 11,7 C 10,6 C 81 % 0 lf 1017,0 hPa 0,0 l/m 0 min 0 min 30 W/m 18,8 km/h (3 Bft) 95,65 %
05.05.2017 20:16 11,8 C 11,7 C 10,0 C 81 % 0 lf 1017,1 hPa 0,0 l/m 0 min 0 min 27 W/m 16,7 km/h (3 Bft) 95,74 %
05.05.2017 20:18 11,8 C 11,7 C 10,0 C 81 % 0 lf 1017,1 hPa 0,0 l/m 0 min 0 min 26 W/m 20,9 km/h (4 Bft) 95,74 %
05.05.2017 20:20 11,7 C 11,1 C 10,0 C 81 % 0 lf 1017,1 hPa 0,0 l/m 0 min 0 min 25 W/m 20,9 km/h (4 Bft) 91,49 %
05.05.2017 20:22 11,7 C 11,1 C 10,0 C 81 % 0 lf 1017,1 hPa 0,0 l/m 0 min 0 min 25 W/m 14,6 km/h (3 Bft) 93,62 %
05.05.2017 20:24 11,7 C 11,1 C 9,4 C 82 % 0 lf 1017,1 hPa 0,0 l/m 0 min 0 min 23 W/m 16,7 km/h (3 Bft) 89,36 %
05.05.2017 20:26 11,6 C 11,1 C 9,4 C 82 % 0 lf 1017,1 hPa 0,0 l/m 0 min 0 min 23 W/m 16,7 km/h (3 Bft) 93,48 %
05.05.2017 20:28 11,6 C 11,1 C 9,4 C 82 % 0 lf 1017,1 hPa 0,0 l/m 0 min 0 min 21 W/m 12,6 km/h (3 Bft) 93,62 %
05.05.2017 20:30 11,6 C 11,1 C 9,4 C 82 % 0 lf 1017,1 hPa 0,0 l/m 0 min 0 min 20 W/m 12,6 km/h (3 Bft) 93,62 %
05.05.2017 20:32 11,5 C 10,6 C 9,4 C 82 % 0 lf 1017,1 hPa 0,0 l/m 0 min 0 min 19 W/m 10,5 km/h (2 Bft) 93,62 %
05.05.2017 20:34 11,4 C 10,6 C 9,4 C 82 % 0 lf 1017,1 hPa 0,0 l/m 0 min 0 min 19 W/m 12,6 km/h (3 Bft) 91,49 %
05.05.2017 20:36 11,4 C 10,6 C 9,4 C 82 % 0 lf 1017,1 hPa 0,0 l/m 0 min 0 min 18 W/m 6,3 km/h (2 Bft) 89,13 %
05.05.2017 20:38 11,4 C 10,6 C 8,9 C 83 % 0 lf 1017,0 hPa 0,0 l/m 0 min 0 min 17 W/m 6,3 km/h (2 Bft) 91,49 %
05.05.2017 20:40 11,3 C 10,6 C 8,9 C 83 % 0 lf 1017,1 hPa 0,0 l/m 0 min 0 min 16 W/m 8,4 km/h (2 Bft) 93,62 %
05.05.2017 20:42 11,3 C 10,6 C 8,9 C 83 % 0 lf 1017,1 hPa 0,0 l/m 0 min 0 min 15 W/m 8,4 km/h (2 Bft) 91,49 %
05.05.2017 20:44 11,3 C 10,0 C 8,9 C 83 % 0 lf 1017,0 hPa 0,0 l/m 0 min 0 min 14 W/m 8,4 km/h (2 Bft) 93,62 %
05.05.2017 20:46 11,2 C 10,0 C 8,9 C 83 % 0 lf 1017,0 hPa 0,0 l/m 0 min 0 min 14 W/m 8,4 km/h (2 Bft) 91,49 %
05.05.2017 20:48 11,2 C 10,0 C 8,3 C 83 % 0 lf 1017,1 hPa 0,0 l/m 0 min 0 min 12 W/m 6,3 km/h (2 Bft) 93,48 %
05.05.2017 20:50 11,2 C 10,0 C 8,3 C 83 % 0 lf 1017,1 hPa 0,0 l/m 0 min 0 min 12 W/m 10,5 km/h (2 Bft) 91,49 %
05.05.2017 20:52 11,1 C 10,0 C 8,3 C 83 % 0 lf 1017,1 hPa 0,0 l/m 0 min 0 min 12 W/m 10,5 km/h (2 Bft) 91,49 %
05.05.2017 20:54 11,1 C 10,0 C 8,3 C 83 % 0 lf 1017,1 hPa 0,0 l/m 0 min 0 min 11 W/m 10,5 km/h (2 Bft) 89,36 %
05.05.2017 20:56 11,0 C 10,0 C 8,3 C 83 % 0 lf 1017,0 hPa 0,0 l/m 0 min 0 min 11 W/m 10,5 km/h (2 Bft) 93,62 %
05.05.2017 20:58 11,0 C 10,0 C 8,3 C 83 % 0 lf 1017,1 hPa 0,0 l/m 0 min 0 min 11 W/m 6,3 km/h (2 Bft) 97,87 %
05.05.2017 21:00 10,9 C 10,0 C 7,8 C 83 % 0 lf 1017,1 hPa 0,0 l/m 0 min 0 min 10 W/m 8,4 km/h (2 Bft) 95,65 %
05.05.2017 21:02 10,9 C 9,4 C 7,8 C 83 % 0 lf 1017,1 hPa 0,0 l/m 0 min 0 min 9 W/m 6,3 km/h (2 Bft) 93,62 %
05.05.2017 21:04 10,9 C 9,4 C 7,8 C 84 % 0 lf 1017,1 hPa 0,0 l/m 0 min 0 min 9 W/m 6,3 km/h (2 Bft) 95,74 %
05.05.2017 21:06 10,8 C 9,4 C 7,8 C 84 % 0 lf 1017,1 hPa 0,0 l/m 0 min 0 min 9 W/m 4,2 km/h (1 Bft) 93,62 %
05.05.2017 21:08 10,8 C 9,4 C 7,8 C 84 % 0 lf 1017,1 hPa 0,0 l/m 0 min 0 min 9 W/m 6,3 km/h (2 Bft) 95,74 %
05.05.2017 21:10 10,8 C 9,4 C 7,2 C 84 % 0 lf 1017,1 hPa 0,0 l/m 0 min 0 min 7 W/m 6,3 km/h (2 Bft) 95,74 %
05.05.2017 21:12 10,7 C 9,4 C 7,2 C 84 % 0 lf 1017,1 hPa 0,0 l/m 0 min 0 min 6 W/m 6,3 km/h (2 Bft) 95,65 %
05.05.2017 21:14 10,7 C 8,9 C 7,2 C 84 % 0 lf 1017,1 hPa 0,0 l/m 0 min 0 min 6 W/m 6,3 km/h (2 Bft) 100,00 %
05.05.2017 21:16 10,7 C 8,9 C 7,2 C 84 % 0 lf 1017,1 hPa 0,0 l/m 0 min 0 min 5 W/m 6,3 km/h (2 Bft) 97,87 %
05.05.2017 21:18 10,6 C 8,9 C 7,2 C 84 % 0 lf 1017,1 hPa 0,0 l/m 0 min 0 min 5 W/m 4,2 km/h (1 Bft) 97,87 %
05.05.2017 21:20 10,6 C 8,9 C 7,2 C 84 % 0 lf 1017,1 hPa 0,0 l/m 0 min 0 min 0 W/m 2,1 km/h (1 Bft) 97,87 %
05.05.2017 21:22 10,5 C 8,9 C 7,2 C 84 % 0 lf 1017,2 hPa 0,0 l/m 0 min 0 min 0 W/m 4,2 km/h (1 Bft) 97,87 %
05.05.2017 21:24 10,5 C 8,9 C 6,7 C 84 % 0 lf 1017,1 hPa 0,0 l/m 0 min 0 min 0 W/m 4,2 km/h (1 Bft) 97,83 %
05.05.2017 21:26 10,4 C 8,9 C 6,7 C 84 % 0 lf 1017,1 hPa 0,0 l/m 0 min 0 min 0 W/m 8,4 km/h (2 Bft) 97,87 %
05.05.2017 21:28 10,4 C 8,9 C 6,7 C 84 % 0 lf 1017,1 hPa 0,0 l/m 0 min 0 min 0 W/m 4,2 km/h (1 Bft) 97,87 %
05.05.2017 21:30 10,3 C 8,3 C 6,7 C 84 % 0 lf 1017,2 hPa 0,0 l/m 0 min 0 min 0 W/m 2,1 km/h (1 Bft) 97,87 %
05.05.2017 21:32 10,3 C 8,3 C 6,7 C 84 % 0 lf 1017,2 hPa 0,0 l/m 0 min 0 min 0 W/m 4,2 km/h (1 Bft) 97,87 %
05.05.2017 21:34 10,2 C 8,3 C 6,7 C 84 % 0 lf 1017,2 hPa 0,0 l/m 0 min 0 min 0 W/m 2,1 km/h (1 Bft) 93,62 %
05.05.2017 21:36 10,2 C 8,3 C 6,7 C 84 % 0 lf 1017,2 hPa 0,0 l/m 0 min 0 min 0 W/m 2,1 km/h (1 Bft) 95,65 %
05.05.2017 21:38 10,2 C 8,3 C 6,1 C 85 % 0 lf 1017,2 hPa 0,0 l/m 0 min 0 min 0 W/m 6,3 km/h (2 Bft) 97,87 %
05.05.2017 21:40 10,1 C 7,8 C 6,1 C 85 % 0 lf 1017,2 hPa 0,0 l/m 0 min 0 min 0 W/m 6,3 km/h (2 Bft) 97,87 %
05.05.2017 21:42 10,1 C 7,8 C 6,1 C 85 % 0 lf 1017,2 hPa 0,0 l/m 0 min 0 min 0 W/m 8,4 km/h (2 Bft) 97,87 %
05.05.2017 21:44 10,0 C 8,3 C 6,7 C 85 % 0 lf 1017,1 hPa 0,0 l/m 0 min 0 min 0 W/m 8,4 km/h (2 Bft) 93,62 %
05.05.2017 21:46 9,9 C 8,3 C 6,7 C 85 % 0 lf 1017,1 hPa 0,0 l/m 0 min 0 min 0 W/m 10,5 km/h (2 Bft) 95,65 %
05.05.2017 21:48 9,9 C 8,3 C 6,7 C 85 % 0 lf 1017,1 hPa 0,0 l/m 0 min 0 min 0 W/m 8,4 km/h (2 Bft) 97,87 %
05.05.2017 21:50 9,8 C 8,3 C 6,7 C 86 % 0 lf 1017,1 hPa 0,0 l/m 0 min 0 min 0 W/m 8,4 km/h (2 Bft) 97,87 %
05.05.2017 21:52 9,8 C 8,3 C 6,7 C 86 % 0 lf 1017,1 hPa 0,0 l/m 0 min 0 min 0 W/m 6,3 km/h (2 Bft) 97,87 %
05.05.2017 21:54 9,8 C 8,3 C 6,7 C 86 % 0 lf 1017,1 hPa 0,0 l/m 0 min 0 min 0 W/m 10,5 km/h (2 Bft) 97,87 %
05.05.2017 21:56 9,7 C 8,3 C 6,1 C 86 % 0 lf 1017,1 hPa 0,0 l/m 0 min 0 min 0 W/m 6,3 km/h (2 Bft) 95,74 %
05.05.2017 21:58 9,7 C 8,3 C 6,1 C 86 % 0 lf 1017,2 hPa 0,0 l/m 0 min 0 min 0 W/m 8,4 km/h (2 Bft) 97,83 %
05.05.2017 22:00 9,7 C 8,3 C 6,1 C 86 % 0 lf 1017,1 hPa 0,0 l/m 0 min 0 min 0 W/m 6,3 km/h (2 Bft) 95,74 %
05.05.2017 22:02 9,6 C 8,3 C 6,1 C 86 % 0 lf 1017,1 hPa 0,0 l/m 0 min 0 min 0 W/m 8,4 km/h (2 Bft) 97,87 %
05.05.2017 22:04 9,6 C 8,3 C 6,1 C 86 % 0 lf 1017,1 hPa 0,0 l/m 0 min 0 min 0 W/m 8,4 km/h (2 Bft) 100,00 %
05.05.2017 22:06 9,6 C 8,3 C 6,1 C 87 % 0 lf 1017,1 hPa 0,0 l/m 0 min 0 min 0 W/m 4,2 km/h (1 Bft) 95,74 %
05.05.2017 22:08 9,5 C 8,3 C 6,1 C 86 % 0 lf 1017,1 hPa 0,0 l/m 0 min 0 min 0 W/m 6,3 km/h (2 Bft) 97,87 %
05.05.2017 22:10 9,4 C 8,3 C 6,1 C 86 % 0 lf 1017,1 hPa 0,0 l/m 0 min 0 min 0 W/m 6,3 km/h (2 Bft) 100,00 %
05.05.2017 22:12 9,4 C 7,8 C 6,1 C 87 % 0 lf 1017,1 hPa 0,0 l/m 0 min 0 min 0 W/m 6,3 km/h (2 Bft) 100,00 %
05.05.2017 22:14 9,4 C 7,8 C 6,1 C 87 % 0 lf 1017,1 hPa 0,0 l/m 0 min 0 min 0 W/m 6,3 km/h (2 Bft) 97,87 %
05.05.2017 22:16 9,3 C 7,8 C 6,1 C 87 % 0 lf 1017,1 hPa 0,0 l/m 0 min 0 min 0 W/m 6,3 km/h (2 Bft) 100,00 %
05.05.2017 22:18 9,3 C 7,8 C 6,1 C 87 % 0 lf 1017,1 hPa 0,0 l/m 0 min 0 min 0 W/m 6,3 km/h (2 Bft) 95,74 %
05.05.2017 22:20 9,3 C 7,8 C 6,1 C 87 % 0 lf 1017,0 hPa 0,0 l/m 0 min 0 min 0 W/m 6,3 km/h (2 Bft) 100,00 %
05.05.2017 22:22 9,2 C 7,8 C 6,1 C 87 % 0 lf 1017,0 hPa 0,0 l/m 0 min 0 min 0 W/m 8,4 km/h (2 Bft) 100,00 %
05.05.2017 22:24 9,2 C 7,8 C 6,1 C 87 % 0 lf 1017,0 hPa 0,0 l/m 0 min 0 min 0 W/m 8,4 km/h (2 Bft) 100,00 %
05.05.2017 22:26 9,2 C 7,8 C 6,1 C 87 % 0 lf 1017,0 hPa 0,0 l/m 0 min 0 min 0 W/m 8,4 km/h (2 Bft) 100,00 %
05.05.2017 22:28 9,1 C 7,8 C 6,1 C 88 % 0 lf 1017,0 hPa 0,0 l/m 0 min 0 min 0 W/m 8,4 km/h (2 Bft) 100,00 %
05.05.2017 22:30 9,1 C 7,8 C 6,1 C 88 % 0 lf 1017,0 hPa 0,0 l/m 0 min 0 min 0 W/m 6,3 km/h (2 Bft) 100,00 %
05.05.2017 22:32 9,1 C 7,8 C 6,1 C 88 % 0 lf 1016,9 hPa 0,0 l/m 0 min 0 min 0 W/m 6,3 km/h (2 Bft) 97,87 %
05.05.2017 22:34 9,0 C 7,8 C 6,1 C 88 % 0 lf 1016,9 hPa 0,0 l/m 0 min 0 min 0 W/m 6,3 km/h (2 Bft) 100,00 %
05.05.2017 22:36 9,0 C 7,8 C 5,6 C 88 % 0 lf 1016,9 hPa 0,0 l/m 0 min 0 min 0 W/m 8,4 km/h (2 Bft) 93,62 %
05.05.2017 22:38 8,9 C 7,8 C 5,6 C 88 % 0 lf 1017,0 hPa 0,0 l/m 0 min 0 min 0 W/m 10,5 km/h (2 Bft) 100,00 %
05.05.2017 22:40 8,9 C 7,8 C 6,1 C 88 % 0 lf 1016,9 hPa 0,0 l/m 0 min 0 min 0 W/m 6,3 km/h (2 Bft) 100,00 %
05.05.2017 22:42 8,9 C 7,8 C 6,1 C 88 % 0 lf 1016,9 hPa 0,0 l/m 0 min 0 min 0 W/m 14,6 km/h (3 Bft) 100,00 %
05.05.2017 22:44 8,8 C 7,8 C 6,1 C 88 % 0 lf 1016,9 hPa 0,0 l/m 0 min 0 min 0 W/m 10,5 km/h (2 Bft) 95,74 %
05.05.2017 22:46 8,8 C 7,8 C 6,1 C 88 % 0 lf 1016,9 hPa 0,0 l/m 0 min 0 min 0 W/m 10,5 km/h (2 Bft) 97,83 %
05.05.2017 22:48 8,8 C 7,8 C 6,1 C 89 % 0 lf 1016,9 hPa 0,0 l/m 0 min 0 min 0 W/m 8,4 km/h (2 Bft) 100,00 %
05.05.2017 22:50 8,8 C 7,8 C 6,1 C 89 % 0 lf 1016,9 hPa 0,0 l/m 0 min 0 min 0 W/m 6,3 km/h (2 Bft) 100,00 %
05.05.2017 22:52 8,7 C 7,8 C 6,1 C 89 % 0 lf 1016,9 hPa 0,0 l/m 0 min 0 min 0 W/m 6,3 km/h (2 Bft) 89,36 %
05.05.2017 22:54 8,7 C 7,8 C 6,1 C 89 % 0 lf 1016,9 hPa 0,0 l/m 0 min 0 min 0 W/m 8,4 km/h (2 Bft) 100,00 %
05.05.2017 22:56 8,7 C 7,8 C 5,6 C 89 % 0 lf 1016,9 hPa 0,0 l/m 0 min 0 min 0 W/m 6,3 km/h (2 Bft) 97,87 %
05.05.2017 22:58 8,7 C 7,8 C 5,6 C 89 % 0 lf 1016,9 hPa 0,0 l/m 0 min 0 min 0 W/m 8,4 km/h (2 Bft) 100,00 %
05.05.2017 23:00 8,7 C 7,8 C 6,1 C 89 % 0 lf 1016,9 hPa 0,0 l/m 0 min 0 min 0 W/m 12,6 km/h (3 Bft) 97,87 %
05.05.2017 23:02 8,7 C 7,8 C 6,1 C 89 % 0 lf 1016,8 hPa 0,0 l/m 0 min 0 min 0 W/m 6,3 km/h (2 Bft) 91,49 %
05.05.2017 23:04 8,6 C 7,8 C 5,6 C 89 % 0 lf 1016,8 hPa 0,0 l/m 0 min 0 min 0 W/m 6,3 km/h (2 Bft) 97,87 %
05.05.2017 23:06 8,6 C 7,8 C 5,6 C 89 % 0 lf 1016,8 hPa 0,0 l/m 0 min 0 min 0 W/m 10,5 km/h (2 Bft) 93,62 %
05.05.2017 23:08 8,6 C 7,8 C 6,1 C 90 % 0 lf 1016,7 hPa 0,0 l/m 0 min 0 min 0 W/m 6,3 km/h (2 Bft) 93,48 %
05.05.2017 23:10 8,6 C 7,8 C 5,6 C 90 % 0 lf 1016,7 hPa 0,0 l/m 0 min 0 min 0 W/m 8,4 km/h (2 Bft) 89,36 %
05.05.2017 23:12 8,6 C 7,8 C 5,6 C 90 % 0 lf 1016,7 hPa 0,0 l/m 0 min 0 min 0 W/m 8,4 km/h (2 Bft) 97,87 %
05.05.2017 23:14 8,6 C 7,8 C 5,6 C 90 % 0 lf 1016,7 hPa 0,0 l/m 0 min 0 min 0 W/m 6,3 km/h (2 Bft) 95,74 %
05.05.2017 23:16 8,5 C 7,8 C 5,6 C 90 % 0 lf 1016,6 hPa 0,0 l/m 0 min 0 min 0 W/m 10,5 km/h (2 Bft) 97,87 %
05.05.2017 23:18 8,5 C 7,8 C 6,1 C 90 % 0 lf 1016,6 hPa 0,0 l/m 0 min 0 min 0 W/m 10,5 km/h (2 Bft) 97,87 %
05.05.2017 23:20 8,5 C 7,8 C 5,6 C 90 % 0 lf 1016,6 hPa 0,0 l/m 0 min 0 min 0 W/m 10,5 km/h (2 Bft) 93,48 %
05.05.2017 23:22 8,5 C 7,8 C 5,6 C 90 % 0 lf 1016,7 hPa 0,0 l/m 0 min 0 min 0 W/m 6,3 km/h (2 Bft) 95,74 %
05.05.2017 23:24 8,4 C 7,8 C 5,6 C 90 % 0 lf 1016,6 hPa 0,0 l/m 0 min 0 min 0 W/m 10,5 km/h (2 Bft) 91,49 %
05.05.2017 23:26 8,4 C 7,8 C 6,1 C 90 % 0 lf 1016,6 hPa 0,0 l/m 0 min 0 min 0 W/m 8,4 km/h (2 Bft) 87,23 %
05.05.2017 23:28 8,4 C 7,8 C 6,1 C 90 % 0 lf 1016,6 hPa 0,0 l/m 0 min 0 min 0 W/m 6,3 km/h (2 Bft) 93,62 %
05.05.2017 23:30 8,4 C 7,8 C 5,6 C 90 % 0 lf 1016,6 hPa 0,0 l/m 0 min 0 min 0 W/m 8,4 km/h (2 Bft) 91,49 %
05.05.2017 23:32 8,4 C 7,2 C 5,6 C 91 % 0 lf 1016,6 hPa 0,0 l/m 0 min 0 min 0 W/m 4,2 km/h (1 Bft) 93,48 %
05.05.2017 23:34 8,4 C 7,8 C 5,6 C 90 % 0 lf 1016,6 hPa 0,0 l/m 0 min 0 min 0 W/m 6,3 km/h (2 Bft) 91,49 %
05.05.2017 23:36 8,4 C 7,8 C 6,1 C 91 % 0 lf 1016,5 hPa 0,0 l/m 0 min 0 min 0 W/m 8,4 km/h (2 Bft) 91,49 %
05.05.2017 23:38 8,4 C 7,8 C 5,6 C 91 % 0 lf 1016,5 hPa 0,0 l/m 0 min 0 min 0 W/m 10,5 km/h (2 Bft) 93,62 %
05.05.2017 23:40 8,3 C 7,8 C 6,1 C 91 % 0 lf 1016,5 hPa 0,0 l/m 0 min 0 min 0 W/m 8,4 km/h (2 Bft) 91,49 %
05.05.2017 23:42 8,3 C 7,8 C 6,1 C 91 % 0 lf 1016,5 hPa 0,0 l/m 0 min 0 min 0 W/m 8,4 km/h (2 Bft) 89,36 %
05.05.2017 23:44 8,3 C 7,8 C 6,1 C 91 % 0 lf 1016,4 hPa 0,0 l/m 0 min 0 min 0 W/m 6,3 km/h (2 Bft) 93,48 %
05.05.2017 23:46 8,3 C 7,8 C 6,1 C 91 % 0 lf 1016,4 hPa 0,0 l/m 0 min 0 min 0 W/m 12,6 km/h (3 Bft) 93,62 %
05.05.2017 23:48 8,3 C 7,8 C 6,1 C 91 % 0 lf 1016,4 hPa 0,0 l/m 0 min 0 min 0 W/m 10,5 km/h (2 Bft) 93,62 %
05.05.2017 23:50 8,3 C 7,8 C 6,1 C 91 % 0 lf 1016,4 hPa 0,0 l/m 0 min 0 min 0 W/m 12,6 km/h (3 Bft) 95,74 %
05.05.2017 23:52 8,3 C 7,8 C 6,1 C 92 % 0 lf 1016,4 hPa 0,0 l/m 0 min 0 min 0 W/m 10,5 km/h (2 Bft) 97,87 %
05.05.2017 23:54 8,3 C 7,8 C 6,1 C 92 % 0 lf 1016,4 hPa 0,0 l/m 0 min 0 min 0 W/m 8,4 km/h (2 Bft) 93,62 %
05.05.2017 23:56 8,3 C 7,8 C 6,1 C 92 % 0 lf 1016,4 hPa 0,0 l/m 0 min 0 min 0 W/m 8,4 km/h (2 Bft) 97,83 %
05.05.2017 23:58 8,3 C 7,8 C 6,1 C 92 % 0 lf 1016,4 hPa 0,0 l/m 0 min 0 min 5 W/m 10,5 km/h (2 Bft) 93,62 %
_ Min-Zeit 06:42 23:32 22:36 17:56 00:00 23:44 - - - - 21:20 00:02
Minimum _ 7,6 C 7,2 C 5,6 C 77 % 0 lf 1016,4 hPa - - - - 2,1 km/h (1 Bft) 11,11 %
_ Max-Zeit 17:22 16:14 16:12 04:18 00:50 11:58 02:04 00:00 01:12 16:10 02:14 01:12
Maximum _ 12,8 C 16,7 C 15,0 C 97 % 15 lf 1019,8 hPa 0,2 l/m 0 min 2 min 188 W/m 29,3 km/h
N (5 Bft)
100,00 %
Durchschnitt _ 9,6 C 10,3 C 8,9 C 90 % 5 lf 1018,7 hPa #0,2 l/m #0 min. #1:04 h 63 W/m 11,7 km/h (2 Bft) 96,32 %
© 2017 W. Hausmann